FW6434 Weather Reports


time (UTC)temp
C
wind
direction
speed
KPH
gust
KPH
rain 1hr
cm
rain 24hr
cm
rain mn
cm
humidity
%
barometer
mb
20260507075632 17 176 0.0 12.9 0.00 0.00 0.00 79 1009.1
20260507075347 18 206 0.0 12.9 0.00 0.00 0.00 78 1009.0
20260507075332 18 191 0.0 12.9 0.00 0.00 0.00 77 1009.0
20260507075317 18 182 0.0 12.9 0.00 0.00 0.00 77 1009.2
20260507075300 18 99 0.0 12.9 0.00 0.00 0.00 77 1009.2
20260507074813 18 187 0.0 16.1 0.00 0.00 0.00 77 1009.1
20260507074714 18 204 0.0 16.1 0.00 0.00 0.00 77 1009.1
20260507074649 18 223 1.6 16.1 0.00 0.00 0.00 77 1009.0
20260507074634 18 161 1.6 16.1 0.00 0.00 0.00 78 1009.0
20260507074618 18 187 0.0 16.1 0.00 0.00 0.00 78 1008.8
20260507074554 18 183 0.0 16.1 0.00 0.00 0.00 78 1008.9
20260507074013 18 201 4.8 16.1 0.00 0.00 0.00 77 1008.6
20260507073912 18 196 0.0 3.2 0.00 0.00 0.00 78 1008.8
20260507073813 18 171 0.0 3.2 0.00 0.00 0.00 78 1008.8
20260507073713 18 182 0.0 3.2 0.00 0.00 0.00 78 1008.7
20260507073613 17 183 0.0 4.8 0.00 0.00 0.00 78 1008.8
20260507073558 17 180 0.0 4.8 0.00 0.00 0.00 78 1008.7
20260507073542 17 189 0.0 4.8 0.00 0.00 0.00 78 1008.9
20260507073313 17 174 0.0 6.4 0.00 0.00 0.00 79 1008.9
20260507073249 17 278 0.0 14.5 0.00 0.00 0.00 79 1008.6
20260507073241 17 179 0.0 6.4 0.00 0.00 0.00 79 1008.6
20260507073226 17 162 0.0 6.4 0.00 0.00 0.00 78 1008.6
20260507073211 17 145 0.0 9.7 0.00 0.00 0.00 79 1008.6
20260507072928 17 188 0.0 9.7 0.00 0.00 0.00 79 1008.7
20260507072911 17 182 0.0 9.7 0.00 0.00 0.00 79 1008.6
20260507072855 17 185 0.0 9.7 0.00 0.00 0.00 80 1008.7
20260507072839 17 190 0.0 9.7 0.00 0.00 0.00 79 1008.7
20260507072823 17 167 1.6 14.5 0.00 0.00 0.00 79 1008.6
20260507072555 17 204 1.6 14.5 0.00 0.00 0.00 79 1008.7
20260507072538 17 191 0.0 14.5 0.00 0.00 0.00 79 1008.7
20260507072523 17 207 3.2 14.5 0.00 0.00 0.00 79 1008.8
20260507072025 17 278 0.0 14.5 0.00 0.00 0.00 79 1008.6
20260507071714 17 188 0.0 14.5 0.00 0.00 0.00 80 1008.7
20260507071614 17 194 0.0 14.5 0.00 0.00 0.00 80 1008.5
20260507071513 17 200 4.8 14.5 0.00 0.00 0.00 79 1008.6
20260507071414 17 172 0.0 6.4 0.00 0.00 0.00 79 1008.4
20260507071350 17 181 0.0 6.4 0.00 0.00 0.00 79 1008.7
20260507071333 17 152 0.0 6.4 0.00 0.00 0.00 79 1008.5
20260507071024 17 133 0.0 12.9 0.00 0.00 0.00 80 1008.4
20260507071020 17 201 0.0 16.1 0.00 0.00 0.00 80 1008.3
20260507071013 17 245 6.4 6.4 0.00 0.00 0.00 79 1008.5
20260507070958 17 189 0.0 4.8 0.00 0.00 0.00 80 1008.7
20260507070935 17 178 0.0 4.8 0.00 0.00 0.00 79 1008.6
20260507070918 17 187 0.0 4.8 0.00 0.00 0.00 80 1008.5
20260507070643 17 196 0.0 12.9 0.00 0.00 0.00 80 1008.6
20260507070626 17 187 0.0 12.9 0.00 0.00 0.00 80 1008.7
20260507070606 17 133 0.0 12.9 0.00 0.00 0.00 80 1008.4
20260507070340 17 209 1.6 12.9 0.00 0.00 0.00 80 1008.6
20260507070103 17 182 0.0 12.9 0.00 0.00 0.00 80 1008.4
20260507070047 17 181 0.0 16.1 0.00 0.00 0.00 81 1008.5
20260507070030 17 201 0.0 16.1 0.00 0.00 0.00 80 1008.3
20260507065804 17 200 3.2 16.1 0.00 0.00 0.00 80 1008.4
20260507065747 17 161 1.6 16.1 0.00 0.00 0.00 80 1008.5
20260507065731 17 194 0.0 16.1 0.00 0.00 0.00 80 1008.4
20260507065446 17 209 1.6 16.1 0.00 0.00 0.00 80 1008.5
20260507065211 17 223 0.0 16.1 0.00 0.00 0.00 80 1008.2
20260507065155 17 183 0.0 22.5 0.00 0.00 0.00 80 1008.3
20260507065139 17 232 6.4 22.5 0.00 0.00 0.00 79 1008.2
20260507065116 17 233 0.0 22.5 0.00 0.00 0.00 79 1008.3
20260507065101 17 187 0.0 22.5 0.00 0.00 0.00 80 1008.5
20260507064825 17 229 8.0 22.5 0.00 0.00 0.00 80 1008.2
20260507064809 16 157 1.6 22.5 0.00 0.00 0.00 80 1008.4
20260507064745 16 175 1.6 22.5 0.00 0.00 0.00 80 1008.3
20260507064250 16 251 3.2 11.3 0.00 0.00 0.00 81 1008.2
20260507064008 16 264 3.2 27.4 0.00 0.00 0.00 81 1008.4
20260507063733 16 239 3.2 27.4 0.00 0.00 0.00 82 1008.4
20260507063413 16 201 4.8 27.4 0.00 0.00 0.00 82 1008.2
20260507063313 16 180 0.0 27.4 0.00 0.00 0.00 82 1008.3
20260507063213 16 242 6.4 27.4 0.00 0.00 0.00 82 1008.4
20260507063113 16 233 4.8 27.4 0.00 0.00 0.00 82 1008.1
20260507063012 16 224 6.4 27.4 0.00 0.00 0.00 82 1008.1
20260507062914 16 228 9.7 20.9 0.00 0.00 0.00 81 1008.2
20260507062813 16 220 6.4 20.9 0.00 0.00 0.00 82 1008.3
20260507062713 16 224 1.6 20.9 0.00 0.00 0.00 81 1008.2
20260507062613 16 200 0.0 20.9 0.00 0.00 0.00 82 1008.2
20260507062513 16 186 0.0 20.9 0.00 0.00 0.00 82 1008.4
20260507062414 16 213 0.0 20.9 0.00 0.00 0.00 81 1008.4
20260507062313 16 242 6.4 20.9 0.00 0.00 0.00 81 1008.3
20260507062213 16 205 0.0 20.9 0.00 0.00 0.00 81 1008.3
20260507062113 16 258 14.5 20.9 0.00 0.00 0.00 81 1008.1
20260507062013 16 229 8.0 24.1 0.00 0.00 0.00 81 1008.3
20260507061913 16 208 6.4 24.1 0.00 0.00 0.00 81 1008.2
20260507061813 16 216 0.0 24.1 0.00 0.00 0.00 81 1008.1
20260507061713 16 216 1.6 24.1 0.00 0.00 0.00 81 1008.2
20260507061619 16 191 0.0 24.1 0.00 0.00 0.00 81 1008.2
20260507061614 16 231 0.0 24.1 0.00 0.00 0.00 81 1008.0
20260507061558 16 324 1.6 24.1 0.00 0.00 0.00 81 1008.4
20260507061542 16 235 1.6 24.1 0.00 0.00 0.00 81 1008.1
20260507061523 16 191 0.0 24.1 0.00 0.00 0.00 81 1008.2
20260507061214 16 237 3.2 24.1 0.00 0.00 0.00 80 1007.8
20260507061112 16 203 12.9 24.1 0.00 0.00 0.00 80 1007.8
20260507061014 16 330 3.2 16.1 0.00 0.00 0.00 81 1008.2
20260507060913 16 218 3.2 16.1 0.00 0.00 0.00 81 1008.2
20260507060813 16 180 0.0 16.1 0.00 0.00 0.00 81 1008.3
20260507060713 16 199 1.6 16.1 0.00 0.00 0.00 82 1008.1
20260507060612 16 190 0.0 16.1 0.00 0.00 0.00 82 1008.1
20260507060557 16 196 0.0 16.1 0.00 0.00 0.00 82 1007.8
20260507060541 16 249 6.4 16.1 0.00 0.00 0.00 82 1008.0
20260507060313 16 224 0.0 16.1 0.00 0.00 0.00 83 1008.0
20260507060215 16 255 1.6 16.1 0.00 0.00 0.00 82 1008.0
20260507060112 16 221 6.4 16.1 0.00 0.00 0.00 83 1008.0
20260507060012 16 80 1.6 16.1 0.00 0.00 0.00 83 1007.9
20260507055913 16 220 4.8 16.1 0.00 0.00 0.00 83 1008.1
20260507055813 16 204 6.4 16.1 0.00 0.00 0.00 83 1007.9
20260507055714 16 198 0.0 16.1 0.00 0.00 0.00 83 1008.1
20260507055613 15 236 6.4 16.1 0.00 0.00 0.00 83 1008.0
20260507055516 15 198 0.0 12.9 0.00 0.00 0.00 83 1008.2
20260507055500 15 212 1.6 12.9 0.00 0.00 0.00 84 1008.0
20260507055435 15 235 4.8 12.9 0.00 0.00 0.00 84 1007.8
20260507055115 15 211 0.0 9.7 0.00 0.00 0.00 85 1008.0
20260507055104 15 215 3.2 9.7 0.00 0.00 0.00 85 1008.0
20260507055055 15 232 4.8 9.7 0.00 0.00 0.00 85 1008.0
20260507055039 15 180 0.0 9.7 0.00 0.00 0.00 85 1008.0
20260507055023 15 215 3.2 9.7 0.00 0.00 0.00 85 1008.0
20260507054714 15 186 0.0 9.7 0.00 0.00 0.00 86 1007.9
20260507054614 15 208 1.6 9.7 0.00 0.00 0.00 86 1007.9
20260507054513 15 191 0.0 9.7 0.00 0.00 0.00 86 1007.9
20260507054414 15 211 0.0 9.7 0.00 0.00 0.00 86 1007.9
20260507054350 15 216 1.6 9.7 0.00 0.00 0.00 86 1008.0
20260507054334 15 207 1.6 9.7 0.00 0.00 0.00 86 1007.8
20260507054055 15 210 0.0 9.7 0.00 0.00 0.00 86 1007.9
20260507054040 15 215 3.2 6.4 0.00 0.00 0.00 86 1007.7
20260507053813 15 203 0.0 6.4 0.00 0.00 0.00 86 1007.8
20260507053713 15 207 3.2 6.4 0.00 0.00 0.00 86 1007.8
20260507053614 15 194 0.0 6.4 0.00 0.00 0.00 87 1007.9
20260507053557 15 192 0.0 6.4 0.00 0.00 0.00 87 1007.8
20260507053541 15 193 0.0 6.4 0.00 0.00 0.00 86 1007.9
20260507053313 15 202 0.0 6.4 0.00 0.00 0.00 86 1007.9
20260507053250 15 207 0.0 1.6 0.00 0.00 0.00 86 1007.9
20260507053234 15 190 0.0 0.0 0.00 0.00 0.00 86 1007.7
20260507052946 15 187 0.0 1.6 0.00 0.00 0.00 86 1008.1
20260507052924 15 190 0.0 1.6 0.00 0.00 0.00 86 1008.0
20260507052909 15 190 0.0 1.6 0.00 0.00 0.00 86 1008.1
20260507052632 15 190 0.0 1.6 0.00 0.00 0.00 86 1008.0
20260507052313 15 190 0.0 1.6 0.00 0.00 0.00 86 1007.8
20260507052213 15 188 0.0 1.6 0.00 0.00 0.00 86 1008.0
20260507052149 15 191 0.0 1.6 0.00 0.00 0.00 86 1007.8
20260507052134 15 189 0.0 1.6 0.00 0.00 0.00 86 1007.8
20260507051813 15 194 0.0 1.6 0.00 0.00 0.00 86 1007.9
20260507051715 15 202 0.0 1.6 0.00 0.00 0.00 86 1007.6
20260507051613 15 204 0.0 1.6 0.00 0.00 0.00 86 1007.8
20260507051512 15 202 0.0 1.6 0.00 0.00 0.00 86 1007.7
20260507051414 15 186 0.0 0.0 0.00 0.00 0.00 86 1007.6
20260507051312 15 194 0.0 0.0 0.00 0.00 0.00 86 1007.9
20260507051213 15 193 0.0 0.0 0.00 0.00 0.00 86 1007.9
20260507051114 15 199 0.0 0.0 0.00 0.00 0.00 86 1008.0
20260507051012 15 198 0.0 0.0 0.00 0.00 0.00 86 1007.9
20260507050913 15 196 0.0 0.0 0.00 0.00 0.00 86 1007.8
20260507050813 15 199 0.0 0.0 0.00 0.00 0.00 86 1007.8
20260507050714 15 193 0.0 0.0 0.00 0.00 0.00 86 1007.8
20260507050648 15 193 0.0 0.0 0.00 0.00 0.00 85 1007.5
20260507050632 15 192 0.0 0.0 0.00 0.00 0.00 86 1007.7
20260507050617 15 192 0.0 0.0 0.00 0.00 0.00 86 1007.7
20260507050552 15 192 0.0 0.0 0.00 0.00 0.00 86 1007.6
20260507050013 15 191 0.0 0.0 0.00 0.00 0.00 85 1007.5
20260507045913 15 191 0.0 1.6 0.00 0.00 0.00 85 1007.5
20260507045849 15 191 0.0 3.2 0.00 0.00 0.00 85 1007.7
20260507045834 15 191 0.0 3.2 0.00 0.00 0.00 85 1007.6
20260507045513 15 193 0.0 3.2 0.00 0.00 0.00 85 1007.5
20260507045415 15 196 0.0 3.2 0.00 0.00 0.00 85 1007.4
20260507045313 15 198 0.0 3.2 0.00 0.00 0.00 85 1007.7
20260507045213 15 198 0.0 3.2 0.00 0.00 0.00 85 1007.6
20260507045113 15 198 0.0 3.2 0.00 0.00 0.00 85 1007.5
20260507045014 15 202 0.0 3.2 0.00 0.00 0.00 85 1007.3
20260507044915 15 205 3.2 3.2 0.00 0.00 0.00 85 1007.5
20260507044813 15 206 0.0 3.2 0.00 0.00 0.00 85 1007.3
20260507044714 15 192 0.0 6.4 0.00 0.00 0.00 85 1007.5
20260507044650 15 188 0.0 6.4 0.00 0.00 0.00 85 1007.4
20260507044633 15 188 0.0 6.4 0.00 0.00 0.00 85 1007.5
20260507044617 15 187 0.0 6.4 0.00 0.00 0.00 86 1007.4
20260507044553 15 190 0.0 6.4 0.00 0.00 0.00 86 1007.6
20260507044316 15 196 0.0 6.4 0.00 0.00 0.00 86 1007.1
20260507044039 15 201 0.0 6.4 0.00 0.00 0.00 85 1007.3
20260507043813 15 221 4.8 6.4 0.00 0.00 0.00 85 1007.4
20260507043714 15 201 1.6 3.2 0.00 0.00 0.00 85 1007.3
20260507043613 15 206 0.0 3.2 0.00 0.00 0.00 85 1007.4
20260507043514 15 198 0.0 1.6 0.00 0.00 0.00 85 1007.4
20260507043413 15 203 0.0 1.6 0.00 0.00 0.00 85 1007.4
20260507043307 15 201 0.0 1.6 0.00 0.00 0.00 85 1007.4
20260507042920 15 200 0.0 1.6 0.00 0.00 0.00 85 1007.2
20260507042901 15 198 0.0 1.6 0.00 0.00 0.00 85 1007.1
20260507042846 15 199 0.0 1.6 0.00 0.00 0.00 84 1007.4
20260507042831 15 201 0.0 1.6 0.00 0.00 0.00 84 1007.4
20260507042519 15 196 0.0 1.6 0.00 0.00 0.00 84 1007.5
20260507042419 15 169 0.0 1.6 0.00 0.00 0.00 84 1007.3
20260507042351 15 192 0.0 1.6 0.00 0.00 0.00 84 1007.2
20260507042335 15 196 0.0 1.6 0.00 0.00 0.00 84 1007.2
20260507042322 15 221 0.0 1.6 0.00 0.00 0.00 84 1007.2
20260507042007 15 196 0.0 1.6 0.00 0.00 0.00 83 1007.0
20260507041908 15 194 0.0 1.6 0.00 0.00 0.00 83 1007.0
20260507041808 15 194 0.0 1.6 0.00 0.00 0.00 83 1007.2
20260507041707 15 196 0.0 1.6 0.00 0.00 0.00 83 1007.0
20260507041639 15 196 0.0 1.6 0.00 0.00 0.00 83 1007.0
20260507041609 15 223 0.0 1.6 0.00 0.00 0.00 83 1007.3
20260507041507 15 196 0.0 0.0 0.00 0.00 0.00 83 1007.2
20260507041434 15 198 0.0 0.0 0.00 0.00 0.00 83 1007.1
20260507041427 15 196 0.0 0.0 0.00 0.00 0.00 83 1007.1
20260507041412 15 196 0.0 0.0 0.00 0.00 0.00 83 1007.2
20260507041357 15 196 0.0 0.0 0.00 0.00 0.00 83 1007.1
20260507041108 15 197 0.0 0.0 0.00 0.00 0.00 83 1007.2
20260507041007 15 190 0.0 0.0 0.00 0.00 0.00 82 1007.0
20260507040943 15 192 0.0 0.0 0.00 0.00 0.00 82 1006.9
20260507040928 15 198 0.0 0.0 0.00 0.00 0.00 82 1006.9
20260507040639 15 194 0.0 0.0 0.00 0.00 0.00 82 1006.9
20260507040607 15 194 0.0 0.0 0.00 0.00 0.00 82 1007.0
20260507040531 15 194 0.0 0.0 0.00 0.00 0.00 82 1007.1
20260507040516 15 194 0.0 0.0 0.00 0.00 0.00 82 1006.8
20260507040140 15 196 0.0 0.0 0.00 0.00 0.00 82 1007.2
20260507040056 15 191 0.0 0.0 0.00 0.00 0.00 82 1006.9
20260507035957 15 191 0.0 0.0 0.00 0.00 0.00 82 1006.9
20260507035856 15 191 0.0 0.0 0.00 0.00 0.00 82 1007.0
20260507035755 15 191 0.0 0.0 0.00 0.00 0.00 82 1007.0
20260507035726 15 191 0.0 0.0 0.00 0.00 0.00 82 1006.9
20260507035715 15 192 0.0 0.0 0.00 0.00 0.00 82 1007.0
20260507035356 15 191 0.0 0.0 0.00 0.00 0.00 82 1006.9
20260507035255 15 191 0.0 0.0 0.00 0.00 0.00 82 1006.7
20260507035156 15 191 0.0 0.0 0.00 0.00 0.00 82 1006.7
20260507035139 15 192 0.0 0.0 0.00 0.00 0.00 81 1006.7
20260507035055 15 191 0.0 0.0 0.00 0.00 0.00 81 1006.8
20260507034957 15 189 0.0 0.0 0.00 0.00 0.00 81 1006.7
20260507034936 15 190 0.0 1.6 0.00 0.00 0.00 81 1006.8
20260507034928 15 190 0.0 1.6 0.00 0.00 0.00 81 1006.8
20260507034912 15 190 0.0 1.6 0.00 0.00 0.00 81 1006.9
20260507034856 15 190 0.0 1.6 0.00 0.00 0.00 81 1006.8
20260507034555 15 190 0.0 3.2 0.00 0.00 0.00 81 1006.7
20260507034455 15 190 0.0 3.2 0.00 0.00 0.00 81 1006.7
20260507034431 15 190 0.0 4.8 0.00 0.00 0.00 81 1006.9
20260507034415 15 191 0.0 4.8 0.00 0.00 0.00 81 1006.8
20260507034139 15 192 0.0 4.8 0.00 0.00 0.00 81 1006.8
20260507034055 15 196 0.0 4.8 0.00 0.00 0.00 81 1006.6
20260507033956 15 200 0.0 4.8 0.00 0.00 0.00 81 1006.9
20260507033857 15 197 0.0 6.4 0.00 0.00 0.00 80 1006.9
20260507033755 15 194 0.0 6.4 0.00 0.00 0.00 81 1006.9
20260507033655 15 204 0.0 6.4 0.00 0.00 0.00 80 1006.6
20260507033639 15 211 3.2 6.4 0.00 0.00 0.00 80 1006.6
20260507033556 15 196 0.0 6.4 0.00 0.00 0.00 80 1006.8
20260507033456 15 205 0.0 9.7 0.00 0.00 0.00 80 1007.1
20260507033419 15 194 0.0 9.7 0.00 0.00 0.00 80 1006.5
20260507033405 15 202 0.0 9.7 0.00 0.00 0.00 80 1006.7
20260507033130 15 201 0.0 9.7 0.00 0.00 0.00 80 1006.6
20260507033047 15 190 0.0 9.7 0.00 0.00 0.00 80 1006.9
20260507032947 15 205 1.6 9.7 0.00 0.00 0.00 80 1006.6
20260507032845 15 192 0.0 9.7 0.00 0.00 0.00 81 1006.5
20260507032746 15 201 0.0 9.7 0.00 0.00 0.00 81 1006.7
20260507032707 15 187 0.0 9.7 0.00 0.00 0.00 81 1006.7
20260507032657 15 187 0.0 9.7 0.00 0.00 0.00 81 1006.7
20260507032641 15 226 1.6 4.8 0.00 0.00 0.00 81 1006.6
20260507032405 15 216 0.0 4.8 0.00 0.00 0.00 81 1006.8
20260507032127 15 204 0.0 4.8 0.00 0.00 0.00 81 1006.9
20260507032053 15 192 0.0 4.8 0.00 0.00 0.00 82 1006.4
20260507032048 15 206 1.6 4.8 0.00 0.00 0.00 81 1006.9
20260507032032 15 177 0.0 4.8 0.00 0.00 0.00 81 1006.8
20260507032017 15 178 0.0 4.8 0.00 0.00 0.00 82 1006.5
20260507032001 15 232 0.0 4.8 0.00 0.00 0.00 82 1006.7
20260507031944 15 216 1.6 4.8 0.00 0.00 0.00 82 1006.6
20260507031932 15 181 0.0 4.8 0.00 0.00 0.00 82 1006.6
20260507031701 15 195 0.0 4.8 0.00 0.00 0.00 82 1006.7
20260507031645 15 220 0.0 4.8 0.00 0.00 0.00 82 1006.4
20260507031630 15 204 1.6 4.8 0.00 0.00 0.00 82 1006.7
20260507031614 15 190 0.0 4.8 0.00 0.00 0.00 82 1006.7
20260507031345 15 200 0.0 4.8 0.00 0.00 0.00 83 1006.4
20260507030848 15 193 0.0 1.6 0.00 0.00 0.00 83 1006.5
20260507030622 15 194 0.0 1.6 0.00 0.00 0.00 83 1006.4
20260507030521 15 194 0.0 1.6 0.00 0.00 0.00 83 1006.6
20260507030422 15 196 0.0 0.0 0.00 0.00 0.00 83 1006.4
20260507030321 15 197 0.0 1.6 0.00 0.00 0.00 83 1006.4
20260507030222 15 198 0.0 3.2 0.00 0.00 0.00 83 1006.4
20260507030122 15 200 0.0 3.2 0.00 0.00 0.00 83 1006.4
20260507030021 15 197 0.0 3.2 0.00 0.00 0.00 83 1006.5
20260507025921 15 199 0.0 3.2 0.00 0.00 0.00 83 1006.4
20260507025820 15 199 0.0 3.2 0.00 0.00 0.00 83 1006.2
20260507025719 15 199 0.0 3.2 0.00 0.00 0.00 83 1006.0
20260507025619 15 200 0.0 3.2 0.00 0.00 0.00 83 1006.5
20260507025516 15 200 0.0 3.2 0.00 0.00 0.00 83 1006.3
20260507025416 15 200 0.0 3.2 0.00 0.00 0.00 83 1006.4
20260507025315 15 210 1.6 3.2 0.00 0.00 0.00 83 1006.3
20260507025213 15 199 0.0 0.0 0.00 0.00 0.00 83 1006.2
20260507025115 15 199 0.0 0.0 0.00 0.00 0.00 83 1006.2
20260507025049 15 196 0.0 6.4 0.00 0.00 0.00 83 1006.6
20260507025038 15 202 0.0 1.6 0.00 0.00 0.00 83 1006.4
20260507025022 15 201 0.0 6.4 0.00 0.00 0.00 83 1006.3
20260507025006 15 206 0.0 6.4 0.00 0.00 0.00 83 1006.3
20260507024951 15 206 0.0 6.4 0.00 0.00 0.00 83 1006.3
20260507024933 15 196 0.0 6.4 0.00 0.00 0.00 83 1006.6
20260507024706 15 199 0.0 6.4 0.00 0.00 0.00 83 1006.5
20260507024430 15 203 0.0 6.4 0.00 0.00 0.00 83 1006.5
20260507024147 15 208 0.0 6.4 0.00 0.00 0.00 84 1006.6
20260507024129 14 200 1.6 6.4 0.00 0.00 0.00 84 1006.3
20260507023849 14 204 0.0 4.8 0.00 0.00 0.00 85 1006.4
20260507023834 14 200 0.0 4.8 0.00 0.00 0.00 85 1006.6
20260507023608 14 198 0.0 4.8 0.00 0.00 0.00 85 1006.4
20260507023508 14 213 0.0 3.2 0.00 0.00 0.00 86 1006.3
20260507023408 13 192 0.0 0.0 0.00 0.00 0.00 86 1006.2
20260507023309 13 185 0.0 0.0 0.00 0.00 0.00 86 1006.3
20260507023208 13 185 0.0 0.0 0.00 0.00 0.00 86 1006.2
20260507023108 13 185 0.0 0.0 0.00 0.00 0.00 86 1006.3
20260507023008 13 185 0.0 0.0 0.00 0.00 0.00 87 1006.4
20260507022951 13 176 0.0 0.0 0.00 0.00 0.00 90 1006.2
20260507022942 13 185 0.0 0.0 0.00 0.00 0.00 87 1006.5
20260507022927 13 185 0.0 0.0 0.00 0.00 0.00 88 1006.5
20260507022911 13 185 0.0 0.0 0.00 0.00 0.00 88 1006.4
20260507022849 13 185 0.0 0.0 0.00 0.00 0.00 88 1006.4
20260507022833 13 185 0.0 0.0 0.00 0.00 0.00 89 1006.6
20260507022816 13 185 0.0 0.0 0.00 0.00 0.00 89 1006.3
20260507022540 13 180 0.0 0.0 0.00 0.00 0.00 90 1006.2
20260507022008 13 176 0.0 0.0 0.00 0.00 0.00 90 1006.4
20260507021931 13 178 0.0 0.0 0.00 0.00 0.00 91 1006.3
20260507021915 13 177 0.0 0.0 0.00 0.00 0.00 91 1006.4
20260507021555 13 173 0.0 0.0 0.00 0.00 0.00 90 1006.3
20260507021532 13 181 0.0 0.0 0.00 0.00 0.00 90 1006.4
20260507021516 13 184 0.0 0.0 0.00 0.00 0.00 90 1006.2
20260507021155 13 184 0.0 0.0 0.00 0.00 0.00 89 1006.5
20260507021056 13 187 0.0 0.0 0.00 0.00 0.00 88 1006.3
20260507021031 13 187 0.0 0.0 0.00 0.00 0.00 88 1006.4
20260507021016 13 188 0.0 0.0 0.00 0.00 0.00 88 1006.5
20260507020959 13 188 0.0 0.0 0.00 0.00 0.00 88 1006.3
20260507020717 13 188 0.0 0.0 0.00 0.00 0.00 88 1006.3
20260507020415 13 188 0.0 0.0 0.00 0.00 0.00 87 1006.4
20260507020409 13 188 0.0 0.0 0.00 0.00 0.00 87 1006.2
20260507020353 13 188 0.0 0.0 0.00 0.00 0.00 87 1006.4
20260507020336 13 188 0.0 0.0 0.00 0.00 0.00 87 1006.3
20260507020318 13 188 0.0 0.0 0.00 0.00 0.00 87 1006.4
20260507015955 13 187 0.0 0.0 0.00 0.00 0.00 87 1006.3
20260507015855 13 187 0.0 0.0 0.00 0.00 0.00 87 1006.0
20260507015756 13 188 0.0 0.0 0.00 0.00 0.00 86 1006.2
20260507015655 14 187 0.0 0.0 0.00 0.00 0.00 86 1006.4
20260507015556 14 188 0.0 0.0 0.00 0.00 0.00 86 1006.4
20260507015518 14 188 0.0 0.0 0.00 0.00 0.00 86 1006.5
20260507015502 14 188 0.0 0.0 0.00 0.00 0.00 85 1006.2
20260507015446 14 188 0.0 0.0 0.00 0.00 0.00 85 1006.3
20260507015204 14 188 0.0 0.0 0.00 0.00 0.00 85 1006.2
20260507015147 14 187 0.0 0.0 0.00 0.00 0.00 85 1006.2
20260507015131 14 187 0.0 0.0 0.00 0.00 0.00 85 1006.3
20260507014551 14 187 0.0 0.0 0.00 0.00 0.00 85 1006.2
20260507014440 14 187 0.0 0.0 0.00 0.00 0.00 85 1006.0
20260507014415 13 187 0.0 0.0 0.00 0.00 0.00 85 1006.2
20260507014400 13 186 0.0 0.0 0.00 0.00 0.00 86 1006.3
20260507014039 14 186 0.0 0.0 0.00 0.00 0.00 85 1006.2
20260507013939 14 182 0.0 1.6 0.00 0.00 0.00 85 1006.3
20260507013839 13 179 0.0 1.6 0.00 0.00 0.00 85 1006.2
20260507013740 13 184 0.0 1.6 0.00 0.00 0.00 86 1006.3
20260507013639 13 191 0.0 1.6 0.00 0.00 0.00 87 1006.0
20260507013540 13 192 0.0 4.8 0.00 0.00 0.00 87 1006.2
20260507013440 13 192 0.0 4.8 0.00 0.00 0.00 87 1006.0
20260507013340 13 192 0.0 4.8 0.00 0.00 0.00 87 1006.5
20260507013240 13 190 0.0 4.8 0.00 0.00 0.00 86 1005.9
20260507013139 13 181 0.0 4.8 0.00 0.00 0.00 86 1005.9
20260507013039 13 153 0.0 4.8 0.00 0.00 0.00 86 1005.9
20260507012939 13 179 0.0 4.8 0.00 0.00 0.00 86 1006.0
20260507012839 13 192 0.0 4.8 0.00 0.00 0.00 86 1005.8
20260507012740 13 194 0.0 4.8 0.00 0.00 0.00 86 1005.9
20260507012640 14 203 3.2 4.8 0.00 0.00 0.00 85 1006.0
20260507012539 14 175 0.0 0.0 0.00 0.00 0.00 85 1005.9
20260507012439 14 170 0.0 0.0 0.00 0.00 0.00 85 1005.9
20260507012339 13 174 0.0 0.0 0.00 0.00 0.00 85 1005.9
20260507012240 13 181 0.0 0.0 0.00 0.00 0.00 85 1006.0
20260507012224 14 190 0.0 0.0 0.00 0.00 0.00 85 1006.0
20260507012200 14 190 0.0 0.0 0.00 0.00 0.00 85 1006.0
20260507011839 14 191 0.0 0.0 0.00 0.00 0.00 85 1006.3
20260507011739 14 191 0.0 0.0 0.00 0.00 0.00 85 1006.0
20260507011723 14 191 0.0 0.0 0.00 0.00 0.00 85 1005.7
20260507011702 14 191 0.0 0.0 0.00 0.00 0.00 85 1006.2
20260507011646 14 191 0.0 0.0 0.00 0.00 0.00 85 1005.9
20260507011410 14 191 0.0 0.0 0.00 0.00 0.00 84 1006.4
20260507011354 14 191 0.0 0.0 0.00 0.00 0.00 84 1006.2
20260507011330 14 191 0.0 0.0 0.00 0.00 0.00 84 1006.0
20260507010835 14 190 0.0 0.0 0.00 0.00 0.00 84 1006.3
20260507010818 14 188 0.0 0.0 0.00 0.00 0.00 84 1006.0
20260507010551 14 193 0.0 0.0 0.00 0.00 0.00 83 1006.0
20260507010439 14 194 0.0 0.0 0.00 0.00 0.00 83 1005.9
20260507010339 14 190 0.0 0.0 0.00 0.00 0.00 83 1005.9
20260507010239 15 182 0.0 0.0 0.00 0.00 0.00 83 1006.3
20260507010140 15 183 0.0 0.0 0.00 0.00 0.00 82 1005.9
20260507010039 15 192 0.0 0.0 0.00 0.00 0.00 82 1005.9
20260507005940 15 192 0.0 0.0 0.00 0.00 0.00 82 1006.2
20260507005841 15 192 0.0 0.0 0.00 0.00 0.00 82 1006.2
20260507005829 14 193 0.0 0.0 0.00 0.00 0.00 82 1006.3
20260507005820 14 192 0.0 0.0 0.00 0.00 0.00 82 1006.0
20260507005805 14 192 0.0 0.0 0.00 0.00 0.00 82 1006.0
20260507005747 14 193 0.0 0.0 0.00 0.00 0.00 82 1006.3
20260507005439 14 192 0.0 0.0 0.00 0.00 0.00 82 1005.9
20260507005338 15 192 0.0 0.0 0.00 0.00 0.00 82 1006.0
20260507005239 15 192 0.0 0.0 0.00 0.00 0.00 82 1005.7
20260507005138 15 192 0.0 0.0 0.00 0.00 0.00 81 1005.8
20260507005036 15 192 0.0 0.0 0.00 0.00 0.00 81 1005.9
20260507004616 15 190 0.0 0.0 0.00 0.00 0.00 81 1005.9
20260507004516 15 190 0.0 0.0 0.00 0.00 0.00 81 1006.3
20260507004415 15 190 0.0 0.0 0.00 0.00 0.00 81 1005.9
20260507004317 15 190 0.0 0.0 0.00 0.00 0.00 81 1005.9
20260507004216 15 195 0.0 0.0 0.00 0.00 0.00 81 1006.0
20260507004117 15 221 0.0 0.0 0.00 0.00 0.00 80 1005.8
20260507004044 15 184 0.0 0.0 0.00 0.00 0.00 80 1005.9
20260507004029 15 183 0.0 0.0 0.00 0.00 0.00 80 1005.8
20260507004014 15 184 0.0 0.0 0.00 0.00 0.00 80 1006.0
20260507003958 15 184 0.0 0.0 0.00 0.00 0.00 80 1005.8
20260507003731 15 192 0.0 0.0 0.00 0.00 0.00 80 1005.8
20260507003411 15 192 0.0 0.0 0.00 0.00 0.00 79 1006.0
20260507003311 15 192 0.0 0.0 0.00 0.00 0.00 79 1006.2
20260507003212 15 192 0.0 0.0 0.00 0.00 0.00 79 1005.8
20260507003111 15 192 0.0 0.0 0.00 0.00 0.00 79 1006.0
20260507003012 15 192 0.0 0.0 0.00 0.00 0.00 79 1006.2
20260507002911 15 191 0.0 0.0 0.00 0.00 0.00 79 1005.9
20260507002811 15 192 0.0 0.0 0.00 0.00 0.00 79 1006.2
20260507002742 15 197 0.0 0.0 0.00 0.00 0.00 79 1006.0
20260507002726 15 197 0.0 0.0 0.00 0.00 0.00 78 1005.8
20260507002407 15 197 0.0 0.0 0.00 0.00 0.00 78 1005.9
20260507002326 16 193 0.0 0.0 0.00 0.00 0.00 76 1005.7
20260507002305 15 198 0.0 0.0 0.00 0.00 0.00 78 1005.7
20260507002255 15 197 0.0 0.0 0.00 0.00 0.00 78 1005.7
20260507002239 15 197 0.0 0.0 0.00 0.00 0.00 78 1006.0
20260507002223 16 196 0.0 0.0 0.00 0.00 0.00 78 1006.0
20260507002207 16 204 0.0 0.0 0.00 0.00 0.00 78 1005.8
20260507001931 15 189 0.0 0.0 0.00 0.00 0.00 77 1005.8
20260507001925 15 189 0.0 0.0 0.00 0.00 0.00 77 1005.8
20260507001649 15 186 0.0 0.0 0.00 0.00 0.00 77 1005.9
20260507001634 15 178 0.0 0.0 0.00 0.00 0.00 77 1005.7
20260507001617 15 193 0.0 0.0 0.00 0.00 0.00 77 1005.9
20260507001559 15 193 0.0 0.0 0.00 0.00 0.00 77 1005.8
20260507001553 15 193 0.0 0.0 0.00 0.00 0.00 77 1005.8
20260507001317 15 193 0.0 0.0 0.00 0.00 0.00 77 1005.9
20260507001025 16 193 0.0 0.0 0.00 0.00 0.00 77 1005.8
20260507001018 16 193 0.0 0.0 0.00 0.00 0.00 77 1005.8
20260507001003 16 193 0.0 0.0 0.00 0.00 0.00 77 1005.9
20260507000947 16 193 0.0 0.0 0.00 0.00 0.00 76 1006.0
20260507000239 16 193 0.0 0.0 0.00 0.00 0.00 76 1005.7
20260507000223 16 193 0.0 0.0 0.00 0.00 0.00 76 1005.9
20260506235903 16 193 0.0 0.0 0.00 0.00 0.00 76 1005.7
20260506235804 16 193 0.0 0.0 0.00 0.00 0.00 76 1005.8
20260506235711 16 193 0.0 0.0 0.00 0.00 0.00 76 1005.6
20260506235703 16 193 0.0 0.0 0.00 0.00 0.00 76 1005.6
20260506235603 16 193 0.0 0.0 0.00 0.00 0.00 76 1005.8
20260506235504 16 193 0.0 0.0 0.00 0.00 0.00 76 1005.7
20260506235359 16 193 0.0 0.0 0.00 0.00 0.00 76 1005.7
20260506235259 16 193 0.0 0.0 0.00 0.00 0.00 76 1005.8
20260506235241 16 193 0.0 0.0 0.00 0.00 0.00 76 1005.9
20260506235234 16 193 0.0 0.0 0.00 0.00 0.00 76 1005.9
20260506235218 16 193 0.0 0.0 0.00 0.00 0.00 76 1005.9
20260506234900 16 193 0.0 0.0 0.00 0.00 0.00 75 1005.8
20260506234759 16 193 0.0 0.0 0.00 0.00 0.00 75 1006.0
20260506234706 16 193 0.0 0.0 0.00 0.00 0.00 75 1005.9
20260506234700 16 193 0.0 0.0 0.00 0.00 0.00 75 1005.9
20260506234635 16 193 0.0 0.0 0.00 0.00 0.00 75 1005.9
20260506234618 16 193 0.0 0.0 0.00 0.00 0.00 75 1005.8
20260506234259 16 194 0.0 0.0 0.00 0.00 0.00 75 1005.8
20260506234207 16 194 0.0 0.0 0.00 0.00 0.00 75 1006.2
20260506234158 16 194 0.0 0.0 0.00 0.00 0.00 75 1006.2
20260506234100 16 190 0.0 0.0 0.00 0.00 0.00 75 1006.0
20260506233958 16 193 0.0 0.0 0.00 0.00 0.00 74 1005.9
20260506233858 16 193 0.0 0.0 0.00 0.00 0.00 74 1006.0
20260506233759 16 193 0.0 0.0 0.00 0.00 0.00 74 1005.9
20260506233705 16 193 0.0 0.0 0.00 0.00 0.00 74 1006.0
20260506233658 16 193 0.0 0.0 0.00 0.00 0.00 74 1006.0
20260506233557 16 195 0.0 1.6 0.00 0.00 0.00 74 1006.0
20260506233454 17 192 0.0 4.8 0.00 0.00 0.00 74 1005.7
20260506233402 17 198 0.0 9.7 0.00 0.00 0.00 72 1006.0
20260506233357 17 188 0.0 9.7 0.00 0.00 0.00 73 1005.8
20260506233341 17 189 0.0 9.7 0.00 0.00 0.00 73 1005.9
20260506233317 17 189 0.0 9.7 0.00 0.00 0.00 73 1005.9
20260506233302 17 188 0.0 9.7 0.00 0.00 0.00 73 1005.7
20260506233246 17 187 0.0 9.7 0.00 0.00 0.00 73 1006.3
20260506233230 17 186 0.0 9.7 0.00 0.00 0.00 73 1005.8
20260506233215 17 192 0.0 9.7 0.00 0.00 0.00 72 1005.9
20260506232948 17 201 1.6 9.7 0.00 0.00 0.00 72 1006.0
20260506232932 17 187 0.0 9.7 0.00 0.00 0.00 72 1006.0
20260506232657 17 224 0.0 9.7 0.00 0.00 0.00 72 1005.8
20260506232418 17 195 0.0 9.7 0.00 0.00 0.00 72 1006.2
20260506232130 17 196 0.0 9.7 0.00 0.00 0.00 72 1005.5
20260506232113 17 219 0.0 3.2 0.00 0.00 0.00 73 1005.8
20260506231751 17 203 0.0 3.2 0.00 0.00 0.00 72 1005.8
20260506231659 17 219 1.6 3.2 0.00 0.00 0.00 72 1005.9
20260506231651 17 200 0.0 3.2 0.00 0.00 0.00 72 1005.9
20260506231551 17 207 0.0 3.2 0.00 0.00 0.00 72 1005.9
20260506231447 17 196 0.0 3.2 0.00 0.00 0.00 72 1006.2
20260506231347 17 198 0.0 3.2 0.00 0.00 0.00 72 1006.0
20260506231247 17 203 1.6 3.2 0.00 0.00 0.00 72 1006.0
20260506231156 17 202 0.0 1.6 0.00 0.00 0.00 72 1005.9
20260506231146 17 211 0.0 1.6 0.00 0.00 0.00 72 1005.9
20260506231132 17 202 0.0 3.2 0.00 0.00 0.00 73 1005.9
20260506231127 17 206 0.0 4.8 0.00 0.00 0.00 72 1006.0
20260506231117 17 197 0.0 3.2 0.00 0.00 0.00 73 1005.9
20260506231102 17 198 0.0 3.2 0.00 0.00 0.00 73 1006.2
20260506231046 17 198 0.0 3.2 0.00 0.00 0.00 73 1005.8
20260506231030 17 200 0.0 4.8 0.00 0.00 0.00 72 1006.0
20260506231008 17 167 0.0 4.8 0.00 0.00 0.00 72 1005.8
20260506230731 17 199 0.0 4.8 0.00 0.00 0.00 72 1005.7
20260506230455 17 203 0.0 4.8 0.00 0.00 0.00 72 1006.2
20260506230227 17 206 0.0 4.8 0.00 0.00 0.00 72 1006.0
20260506230211 17 210 1.6 4.8 0.00 0.00 0.00 72 1006.2
20260506225947 17 209 0.0 4.8 0.00 0.00 0.00 72 1006.0
20260506225932 17 210 1.6 4.8 0.00 0.00 0.00 72 1005.8
20260506225915 17 224 0.0 3.2 0.00 0.00 0.00 72 1006.0
20260506225646 17 215 0.0 3.2 0.00 0.00 0.00 73 1005.9
20260506225545 16 207 0.0 3.2 0.00 0.00 0.00 72 1006.0
20260506225445 16 221 1.6 3.2 0.00 0.00 0.00 73 1006.3
20260506225345 16 200 0.0 3.2 0.00 0.00 0.00 73 1006.2
20260506225246 16 205 0.0 1.6 0.00 0.00 0.00 73 1006.2
20260506225228 16 205 0.0 1.6 0.00 0.00 0.00 73 1006.0
20260506225221 16 199 0.0 1.6 0.00 0.00 0.00 73 1006.0
20260506225206 16 209 0.0 0.0 0.00 0.00 0.00 74 1006.2
20260506224845 16 196 0.0 0.0 0.00 0.00 0.00 74 1006.0
20260506224746 16 196 0.0 0.0 0.00 0.00 0.00 74 1006.0
20260506224645 16 196 0.0 0.0 0.00 0.00 0.00 74 1006.0
20260506224546 16 196 0.0 0.0 0.00 0.00 0.00 74 1005.9
20260506224444 16 196 0.0 0.0 0.00 0.00 0.00 74 1005.9
20260506224340 16 196 0.0 0.0 0.00 0.00 0.00 73 1006.0
20260506224240 16 196 0.0 0.0 0.00 0.00 0.00 73 1005.7
20260506224222 16 197 0.0 0.0 0.00 0.00 0.00 73 1006.0
20260506224216 16 197 0.0 0.0 0.00 0.00 0.00 74 1006.0
20260506224200 16 198 0.0 0.0 0.00 0.00 0.00 74 1005.9
20260506223835 16 184 0.0 0.0 0.00 0.00 0.00 74 1005.8
20260506223734 16 182 0.0 0.0 0.00 0.00 0.00 75 1005.8
20260506223634 17 188 0.0 0.0 0.00 0.00 0.00 74 1005.9
20260506223612 17 201 0.0 1.6 0.00 0.00 0.00 69 1006.0
20260506223603 17 195 0.0 0.0 0.00 0.00 0.00 72 1005.8
20260506223547 17 195 0.0 0.0 0.00 0.00 0.00 71 1005.9
20260506223530 17 199 0.0 0.0 0.00 0.00 0.00 71 1006.0
20260506223306 17 200 0.0 0.0 0.00 0.00 0.00 71 1005.8
20260506223249 17 200 0.0 0.0 0.00 0.00 0.00 71 1005.8
20260506223242 17 201 0.0 0.0 0.00 0.00 0.00 71 1005.9
20260506223228 17 204 0.0 0.0 0.00 0.00 0.00 71 1005.8
20260506223213 17 203 0.0 0.0 0.00 0.00 0.00 71 1005.7
20260506223157 17 186 0.0 0.0 0.00 0.00 0.00 71 1005.8
20260506222921 17 186 0.0 1.6 0.00 0.00 0.00 71 1005.7
20260506222915 17 186 0.0 1.6 0.00 0.00 0.00 71 1005.8
20260506222859 17 189 0.0 1.6 0.00 0.00 0.00 71 1005.9
20260506222844 17 192 0.0 1.6 0.00 0.00 0.00 71 1005.7
20260506222827 17 196 0.0 1.6 0.00 0.00 0.00 70 1005.9
20260506222034 17 201 0.0 1.6 0.00 0.00 0.00 69 1005.7
20260506221935 17 206 0.0 1.6 0.00 0.00 0.00 69 1005.9
20260506221834 17 209 0.0 1.6 0.00 0.00 0.00 69 1005.9
20260506221733 17 208 0.0 1.6 0.00 0.00 0.00 69 1005.7
20260506221716 17 199 0.0 1.6 0.00 0.00 0.00 69 1005.7
20260506221710 17 198 0.0 1.6 0.00 0.00 0.00 69 1005.9
20260506221654 17 198 0.0 1.6 0.00 0.00 0.00 69 1005.8
20260506221334 17 199 0.0 1.6 0.00 0.00 0.00 68 1005.7
20260506221234 17 199 0.0 1.6 0.00 0.00 0.00 68 1005.9
20260506221213 17 200 0.0 1.6 0.00 0.00 0.00 68 1005.9
20260506221205 17 200 0.0 1.6 0.00 0.00 0.00 69 1005.8
20260506221148 17 200 0.0 0.0 0.00 0.00 0.00 69 1005.9
20260506221134 17 198 0.0 0.0 0.00 0.00 0.00 69 1005.8
20260506221120 17 187 0.0 0.0 0.00 0.00 0.00 69 1005.9
20260506220844 17 188 0.0 1.6 0.00 0.00 0.00 69 1006.0
20260506220533 17 188 0.0 1.6 0.00 0.00 0.00 69 1005.6
20260506220518 17 186 0.0 1.6 0.00 0.00 0.00 68 1005.7
20260506220508 17 189 0.0 1.6 0.00 0.00 0.00 69 1005.7
20260506220452 17 190 0.0 1.6 0.00 0.00 0.00 69 1005.6
20260506220437 17 186 0.0 1.6 0.00 0.00 0.00 68 1005.7
20260506220207 17 186 0.0 1.6 0.00 0.00 0.00 68 1005.8
20260506220152 17 186 0.0 1.6 0.00 0.00 0.00 68 1005.7
20260506220136 17 187 0.0 1.6 0.00 0.00 0.00 68 1005.7
20260506215900 17 189 0.0 0.0 0.00 0.00 0.00 68 1005.9
20260506215844 17 189 0.0 0.0 0.00 0.00 0.00 68 1005.8
20260506215506 17 187 0.0 0.0 0.00 0.00 0.00 69 1005.8
20260506215436 17 190 0.0 0.0 0.00 0.00 0.00 69 1005.9
20260506215428 17 190 0.0 0.0 0.00 0.00 0.00 69 1005.7
20260506215413 17 191 0.0 0.0 0.00 0.00 0.00 69 1005.8
20260506215356 17 191 0.0 0.0 0.00 0.00 0.00 69 1005.9
20260506215105 18 190 0.0 0.0 0.00 0.00 0.00 68 1006.0
20260506215006 18 188 0.0 1.6 0.00 0.00 0.00 68 1005.8
20260506214904 18 186 0.0 1.6 0.00 0.00 0.00 68 1005.9
20260506214805 18 186 0.0 1.6 0.00 0.00 0.00 67 1005.8
20260506214705 18 178 0.0 1.6 0.00 0.00 0.00 67 1005.9
20260506214638 18 191 0.0 1.6 0.00 0.00 0.00 67 1005.9
20260506214605 18 221 0.0 1.6 0.00 0.00 0.00 67 1005.9
20260506214505 18 196 0.0 1.6 0.00 0.00 0.00 67 1005.9
20260506214443 18 197 0.0 1.6 0.00 0.00 0.00 67 1006.0
20260506214427 18 194 0.0 1.6 0.00 0.00 0.00 67 1005.8
20260506214410 18 194 0.0 1.6 0.00 0.00 0.00 67 1005.7
20260506214355 18 194 0.0 1.6 0.00 0.00 0.00 66 1005.7
20260506214125 18 188 0.0 0.0 0.00 0.00 0.00 66 1005.8
20260506213804 18 188 0.0 0.0 0.00 0.00 0.00 66 1005.8
20260506213704 18 188 0.0 0.0 0.00 0.00 0.00 66 1005.6
20260506213637 18 188 0.0 0.0 0.00 0.00 0.00 66 1005.6
20260506213605 18 188 0.0 0.0 0.00 0.00 0.00 66 1005.8
20260506213541 18 186 0.0 0.0 0.00 0.00 0.00 66 1005.7
20260506213524 18 186 0.0 0.0 0.00 0.00 0.00 66 1005.7
20260506213136 18 186 0.0 0.0 0.00 0.00 0.00 66 1006.0
20260506213104 18 186 0.0 0.0 0.00 0.00 0.00 66 1005.8
20260506213005 18 186 0.0 0.0 0.00 0.00 0.00 66 1005.8
20260506212903 18 189 0.0 0.0 0.00 0.00 0.00 66 1005.9
20260506212803 18 184 0.0 0.0 0.00 0.00 0.00 66 1005.9
20260506212717 18 180 0.0 0.0 0.00 0.00 0.00 66 1005.9
20260506212703 18 181 0.0 0.0 0.00 0.00 0.00 66 1005.9
20260506212654 18 181 0.0 0.0 0.00 0.00 0.00 66 1005.8
20260506212637 18 179 0.0 0.0 0.00 0.00 0.00 66 1005.9
20260506212620 18 182 0.0 0.0 0.00 0.00 0.00 66 1005.7
20260506212605 18 184 0.0 0.0 0.00 0.00 0.00 65 1005.8
20260506212328 18 183 0.0 1.6 0.00 0.00 0.00 65 1005.8
20260506212318 18 163 0.0 1.6 0.00 0.00 0.00 65 1005.7
20260506212305 18 185 0.0 1.6 0.00 0.00 0.00 65 1005.9
20260506211817 18 183 0.0 1.6 0.00 0.00 0.00 65 1005.7
20260506211750 18 183 0.0 1.6 0.00 0.00 0.00 65 1005.8
20260506211739 19 177 0.0 4.8 0.00 0.00 0.00 65 1005.8
20260506211515 19 170 0.0 4.8 0.00 0.00 0.00 65 1005.7
20260506211500 19 181 0.0 4.8 0.00 0.00 0.00 65 1005.9
20260506211443 19 182 0.0 4.8 0.00 0.00 0.00 65 1006.0
20260506211426 19 191 0.0 4.8 0.00 0.00 0.00 65 1005.9
20260506211413 19 189 0.0 4.8 0.00 0.00 0.00 65 1005.9
20260506211143 19 183 0.0 4.8 0.00 0.00 0.00 65 1005.7
20260506211127 19 180 0.0 6.4 0.00 0.00 0.00 65 1005.7
20260506210852 19 165 3.2 6.4 0.00 0.00 0.00 64 1005.9
20260506210625 19 187 0.0 6.4 0.00 0.00 0.00 64 1005.7
20260506210609 19 210 3.2 6.4 0.00 0.00 0.00 64 1005.9
20260506210247 19 199 3.2 6.4 0.00 0.00 0.00 64 1005.6
20260506210149 19 210 3.2 6.4 0.00 0.00 0.00 64 1005.6
20260506210135 19 203 0.0 6.4 0.00 0.00 0.00 64 1005.6
20260506210125 19 198 0.0 6.4 0.00 0.00 0.00 64 1006.0
20260506210108 19 211 4.8 6.4 0.00 0.00 0.00 64 1005.7
20260506205748 19 196 3.2 4.8 0.00 0.00 0.00 65 1005.8
20260506205648 19 196 0.0 3.2 0.00 0.00 0.00 65 1005.8
20260506205633 19 204 0.0 3.2 0.00 0.00 0.00 65 1005.8
20260506205547 19 203 0.0 3.2 0.00 0.00 0.00 65 1005.6
20260506205533 18 188 0.0 1.6 0.00 0.00 0.00 65 1005.6
20260506205523 18 203 0.0 3.2 0.00 0.00 0.00 65 1006.0
20260506205508 18 192 1.6 3.2 0.00 0.00 0.00 65 1005.7
20260506205451 18 206 0.0 1.6 0.00 0.00 0.00 65 1005.7
20260506205436 18 180 0.0 1.6 0.00 0.00 0.00 65 1005.7
20260506205206 18 184 0.0 1.6 0.00 0.00 0.00 65 1005.6
20260506204846 18 190 0.0 1.6 0.00 0.00 0.00 65 1005.8
20260506204745 18 186 0.0 1.6 0.00 0.00 0.00 65 1005.5
20260506204630 18 185 0.0 1.6 0.00 0.00 0.00 65 1005.6
20260506204545 18 185 0.0 1.6 0.00 0.00 0.00 65 1005.6
20260506204445 18 184 0.0 1.6 0.00 0.00 0.00 65 1005.6
20260506204344 18 194 0.0 1.6 0.00 0.00 0.00 65 1005.8
20260506204318 18 185 0.0 1.6 0.00 0.00 0.00 65 1005.8
20260506204247 18 195 0.0 1.6 0.00 0.00 0.00 65 1005.6
20260506204237 18 178 0.0 1.6 0.00 0.00 0.00 65 1005.6
20260506204221 18 180 0.0 1.6 0.00 0.00 0.00 65 1005.7
20260506203642 18 160 0.0 1.6 0.00 0.00 0.00 65 1005.7
20260506203625 18 165 0.0 1.6 0.00 0.00 0.00 65 1005.6
20260506203539 18 182 0.0 1.6 0.00 0.00 0.00 65 1005.6
20260506203437 18 176 0.0 1.6 0.00 0.00 0.00 65 1005.5
20260506203335 18 162 0.0 1.6 0.00 0.00 0.00 65 1005.6
20260506203235 18 169 0.0 1.6 0.00 0.00 0.00 65 1005.5
20260506203136 18 118 0.0 1.6 0.00 0.00 0.00 65 1005.6
20260506203120 18 118 0.0 1.6 0.00 0.00 0.00 65 1005.5
20260506203036 18 172 0.0 1.6 0.00 0.00 0.00 65 1005.5
20260506202935 19 173 0.0 1.6 0.00 0.00 0.00 65 1005.6
20260506202922 19 168 0.0 3.2 0.00 0.00 0.00 64 1005.5
20260506202912 19 170 0.0 3.2 0.00 0.00 0.00 65 1005.5
20260506202856 19 175 0.0 3.2 0.00 0.00 0.00 64 1005.4
20260506202839 19 166 0.0 3.2 0.00 0.00 0.00 64 1005.3
20260506202613 19 170 0.0 3.2 0.00 0.00 0.00 64 1005.5
20260506202557 19 174 0.0 3.2 0.00 0.00 0.00 64 1005.4
20260506202235 19 164 0.0 3.2 0.00 0.00 0.00 64 1005.6
20260506202137 19 138 1.6 3.2 0.00 0.00 0.00 64 1005.6
20260506202119 19 156 0.0 3.2 0.00 0.00 0.00 64 1005.6
20260506202036 19 195 0.0 3.2 0.00 0.00 0.00 64 1005.6
20260506202010 19 166 0.0 3.2 0.00 0.00 0.00 64 1005.4
20260506201955 19 147 0.0 1.6 0.00 0.00 0.00 64 1005.5
20260506201634 19 172 0.0 1.6 0.00 0.00 0.00 64 1005.7
20260506201618 19 172 0.0 1.6 0.00 0.00 0.00 64 1005.6
20260506201535 19 169 0.0 1.6 0.00 0.00 0.00 64 1005.6
20260506201433 19 173 0.0 1.6 0.00 0.00 0.00 64 1005.7
20260506201333 19 168 0.0 3.2 0.00 0.00 0.00 64 1005.3
20260506201233 19 171 0.0 3.2 0.00 0.00 0.00 64 1005.4
20260506201133 19 175 0.0 6.4 0.00 0.00 0.00 64 1005.5
20260506201115 19 182 0.0 6.4 0.00 0.00 0.00 64 1005.5
20260506201029 19 165 0.0 6.4 0.00 0.00 0.00 64 1005.4
20260506200929 19 169 0.0 6.4 0.00 0.00 0.00 63 1005.3
20260506200829 19 178 0.0 6.4 0.00 0.00 0.00 63 1005.5
20260506200802 19 179 0.0 6.4 0.00 0.00 0.00 63 1005.5
20260506200735 19 184 0.0 6.4 0.00 0.00 0.00 63 1005.6
20260506200725 20 168 0.0 6.4 0.00 0.00 0.00 63 1005.4
20260506200708 20 171 0.0 6.4 0.00 0.00 0.00 63 1005.4
20260506200434 20 190 0.0 6.4 0.00 0.00 0.00 63 1005.4
20260506200417 20 206 3.2 6.4 0.00 0.00 0.00 63 1005.4
20260506200404 20 192 0.0 6.4 0.00 0.00 0.00 63 1005.4
20260506195906 20 192 0.0 9.7 0.00 0.00 0.00 63 1005.5
20260506195851 20 206 0.0 9.7 0.00 0.00 0.00 62 1005.4
20260506195612 20 196 0.0 9.7 0.00 0.00 0.00 62 1005.2
20260506195527 20 199 0.0 11.3 0.00 0.00 0.00 62 1005.5
20260506195427 20 201 0.0 11.3 0.00 0.00 0.00 62 1005.5
20260506195328 20 217 4.8 11.3 0.00 0.00 0.00 62 1005.4
20260506195215 20 203 3.2 11.3 0.00 0.00 0.00 62 1005.5
20260506195115 20 212 3.2 11.3 0.00 0.00 0.00 62 1005.5
20260506195015 20 218 8.0 11.3 0.00 0.00 0.00 62 1005.5
20260506194913 20 192 0.0 11.3 0.00 0.00 0.00 62 1005.4
20260506194810 20 190 0.0 11.3 0.00 0.00 0.00 62 1005.4
20260506194711 20 178 1.6 11.3 0.00 0.00 0.00 62 1005.4
20260506194610 20 237 4.8 11.3 0.00 0.00 0.00 62 1005.4
20260506194510 20 234 1.6 12.9 0.00 0.00 0.00 62 1005.3
20260506194454 20 220 3.2 12.9 0.00 0.00 0.00 62 1005.5
20260506194438 20 225 3.2 12.9 0.00 0.00 0.00 61 1005.6
20260506194422 20 220 3.2 12.9 0.00 0.00 0.00 61 1005.5
20260506194357 20 186 0.0 12.9 0.00 0.00 0.00 61 1005.6
20260506194117 20 235 3.2 12.9 0.00 0.00 0.00 61 1005.5
20260506193839 20 200 0.0 12.9 0.00 0.00 0.00 61 1005.4
20260506193611 20 233 8.0 12.9 0.00 0.00 0.00 61 1005.4
20260506193511 20 191 0.0 12.9 0.00 0.00 0.00 61 1005.3
20260506193409 20 186 0.0 12.9 0.00 0.00 0.00 61 1005.3
20260506193309 20 224 1.6 12.9 0.00 0.00 0.00 61 1005.7
20260506193209 20 237 0.0 16.1 0.00 0.00 0.00 61 1005.5
20260506193105 20 250 6.4 16.1 0.00 0.00 0.00 61 1005.4
20260506193006 20 223 3.2 16.1 0.00 0.00 0.00 61 1005.4
20260506192906 20 203 0.0 16.1 0.00 0.00 0.00 61 1005.5
20260506192849 20 200 0.0 16.1 0.00 0.00 0.00 60 1005.5
20260506192833 20 227 6.4 16.1 0.00 0.00 0.00 60 1005.5
20260506192606 20 200 1.6 16.1 0.00 0.00 0.00 61 1005.3
20260506192505 20 190 1.6 16.1 0.00 0.00 0.00 61 1005.4
20260506192408 20 205 6.4 16.1 0.00 0.00 0.00 61 1005.4
20260506192352 20 184 0.0 16.1 0.00 0.00 0.00 60 1005.3
20260506192336 20 207 1.6 14.5 0.00 0.00 0.00 61 1005.4
20260506192106 20 200 1.6 14.5 0.00 0.00 0.00 61 1005.4
20260506192006 20 211 1.6 14.5 0.00 0.00 0.00 60 1005.4
20260506191904 20 203 8.0 14.5 0.00 0.00 0.00 60 1005.3
20260506191805 20 198 1.6 14.5 0.00 0.00 0.00 60 1005.3
20260506191704 20 199 1.6 14.5 0.00 0.00 0.00 60 1005.4
20260506191605 20 203 4.8 14.5 0.00 0.00 0.00 60 1005.4
20260506191504 20 221 6.4 12.9 0.00 0.00 0.00 60 1005.4
20260506191404 20 194 3.2 12.9 0.00 0.00 0.00 60 1005.5
20260506191342 20 215 6.4 12.9 0.00 0.00 0.00 60 1005.6
20260506191327 20 230 8.0 12.9 0.00 0.00 0.00 60 1005.2
20260506191302 20 222 6.4 12.9 0.00 0.00 0.00 60 1005.4
20260506191247 20 213 4.8 12.9 0.00 0.00 0.00 60 1005.3
20260506190704 20 233 3.2 12.9 0.00 0.00 0.00 59 1005.3
20260506190617 20 250 4.8 12.9 0.00 0.00 0.00 59 1005.3
20260506190504 20 200 0.0 12.9 0.00 0.00 0.00 59 1005.2
20260506190404 20 216 6.4 12.9 0.00 0.00 0.00 59 1005.3
20260506190305 20 217 6.4 12.9 0.00 0.00 0.00 59 1005.4
20260506190205 20 207 8.0 12.9 0.00 0.00 0.00 59 1005.2
20260506190134 20 198 3.2 12.9 0.00 0.00 0.00 60 1005.2
20260506190118 20 200 3.2 12.9 0.00 0.00 0.00 60 1005.2
20260506185758 20 188 1.6 12.9 0.00 0.00 0.00 59 1005.4
20260506185657 20 222 8.0 12.9 0.00 0.00 0.00 59 1005.2
20260506185558 20 216 3.2 11.3 0.00 0.00 0.00 60 1005.2
20260506185521 20 234 3.2 11.3 0.00 0.00 0.00 59 1005.2
20260506185505 20 226 3.2 11.3 0.00 0.00 0.00 60 1005.1
20260506185450 20 214 3.2 11.3 0.00 0.00 0.00 60 1005.1
20260506185434 20 211 3.2 14.5 0.00 0.00 0.00 60 1005.4
20260506185411 20 214 3.2 14.5 0.00 0.00 0.00 60 1005.2
20260506184913 20 228 6.4 14.5 0.00 0.00 0.00 60 1005.0
20260506184856 20 206 0.0 14.5 0.00 0.00 0.00 60 1005.1
20260506184628 20 200 1.6 14.5 0.00 0.00 0.00 60 1005.3
20260506184612 20 223 4.8 14.5 0.00 0.00 0.00 60 1005.3
20260506184254 20 190 0.0 14.5 0.00 0.00 0.00 60 1005.3
20260506184152 20 208 4.8 12.9 0.00 0.00 0.00 60 1005.2
20260506184052 20 211 1.6 9.7 0.00 0.00 0.00 60 1005.2
20260506183952 21 192 0.0 9.7 0.00 0.00 0.00 60 1004.9
20260506183852 21 192 0.0 9.7 0.00 0.00 0.00 60 1005.2
20260506183752 21 185 0.0 9.7 0.00 0.00 0.00 60 1005.1
20260506183734 21 190 0.0 9.7 0.00 0.00 0.00 60 1004.9
20260506183712 21 201 0.0 9.7 0.00 0.00 0.00 60 1005.2
20260506183353 21 197 1.6 9.7 0.00 0.00 0.00 60 1005.2
20260506183253 21 231 4.8 9.7 0.00 0.00 0.00 60 1004.9
20260506183155 21 194 0.0 4.8 0.00 0.00 0.00 60 1005.0
20260506183131 21 205 3.2 4.8 0.00 0.00 0.00 60 1005.2
20260506183114 21 200 0.0 6.4 0.00 0.00 0.00 60 1005.2
20260506182753 21 214 4.8 11.3 0.00 0.00 0.00 60 1005.0
20260506182737 21 198 1.6 14.5 0.00 0.00 0.00 60 1005.2
20260506182713 21 222 0.0 14.5 0.00 0.00 0.00 60 1004.9
20260506182353 21 196 1.6 17.7 0.00 0.00 0.00 60 1005.1
20260506182253 21 210 3.2 17.7 0.00 0.00 0.00 60 1005.1
20260506182152 21 225 1.6 17.7 0.00 0.00 0.00 60 1004.9
20260506182053 21 211 4.8 17.7 0.00 0.00 0.00 60 1005.1
20260506181952 21 201 8.0 17.7 0.00 0.00 0.00 60 1004.9
20260506181854 21 212 3.2 17.7 0.00 0.00 0.00 60 1004.9
20260506181752 21 233 6.4 17.7 0.00 0.00 0.00 59 1004.9
20260506181734 21 179 1.6 17.7 0.00 0.00 0.00 60 1004.9
20260506181712 21 198 4.8 17.7 0.00 0.00 0.00 59 1004.9
20260506181352 21 201 1.6 17.7 0.00 0.00 0.00 59 1004.8
20260506181252 21 191 3.2 17.7 0.00 0.00 0.00 59 1005.0
20260506181151 21 210 6.4 17.7 0.00 0.00 0.00 59 1004.6
20260506181141 21 222 3.2 9.7 0.00 0.00 0.00 59 1004.6
20260506181123 21 202 1.6 17.7 0.00 0.00 0.00 59 1004.9
20260506181108 21 198 3.2 17.7 0.00 0.00 0.00 59 1004.8
20260506181052 21 189 4.8 17.7 0.00 0.00 0.00 59 1005.0
20260506181037 21 175 0.0 17.7 0.00 0.00 0.00 59 1004.9
20260506180759 21 222 3.2 9.7 0.00 0.00 0.00 59 1004.6
20260506180523 21 190 0.0 9.7 0.00 0.00 0.00 59 1004.8
20260506180508 21 191 1.6 9.7 0.00 0.00 0.00 59 1005.0
20260506180148 21 194 3.2 9.7 0.00 0.00 0.00 59 1004.8
20260506180122 21 202 0.0 9.7 0.00 0.00 0.00 59 1004.8
20260506180107 21 190 3.2 9.7 0.00 0.00 0.00 58 1004.6
20260506175747 21 189 1.6 9.7 0.00 0.00 0.00 58 1004.9
20260506175730 21 212 3.2 9.7 0.00 0.00 0.00 58 1004.9
20260506175708 21 202 0.0 6.4 0.00 0.00 0.00 58 1004.9
20260506175425 21 198 3.2 6.4 0.00 0.00 0.00 57 1004.8
20260506175409 21 191 0.0 6.4 0.00 0.00 0.00 57 1005.1
20260506175125 21 199 3.2 6.4 0.00 0.00 0.00 57 1004.9
20260506175109 21 198 1.6 6.4 0.00 0.00 0.00 57 1005.0
20260506174748 21 200 1.6 9.7 0.00 0.00 0.00 57 1005.0
20260506174649 21 183 0.0 9.7 0.00 0.00 0.00 57 1005.0
20260506174548 22 204 1.6 9.7 0.00 0.00 0.00 57 1005.0
20260506174449 22 189 0.0 9.7 0.00 0.00 0.00 56 1004.8
20260506174347 22 215 0.0 9.7 0.00 0.00 0.00 56 1004.7
20260506174247 22 178 0.0 9.7 0.00 0.00 0.00 56 1004.8
20260506174148 22 179 3.2 11.3 0.00 0.00 0.00 56 1004.8
20260506174048 22 189 0.0 11.3 0.00 0.00 0.00 57 1004.6
20260506173948 22 199 4.8 12.9 0.00 0.00 0.00 56 1004.6
20260506173847 22 187 1.6 12.9 0.00 0.00 0.00 56 1004.8
20260506173747 22 186 0.0 12.9 0.00 0.00 0.00 56 1004.7
20260506173647 22 178 1.6 12.9 0.00 0.00 0.00 56 1005.0
20260506173547 22 187 1.6 12.9 0.00 0.00 0.00 56 1004.8
20260506173447 22 200 0.0 12.9 0.00 0.00 0.00 57 1004.8
20260506173348 22 193 0.0 12.9 0.00 0.00 0.00 56 1004.6
20260506173332 22 114 0.0 12.9 0.00 0.00 0.00 55 1004.7
20260506173316 22 212 3.2 12.9 0.00 0.00 0.00 56 1004.9
20260506173047 22 181 1.6 12.9 0.00 0.00 0.00 56 1004.6
20260506172948 22 196 1.6 12.9 0.00 0.00 0.00 55 1004.6
20260506172847 22 182 1.6 12.9 0.00 0.00 0.00 56 1004.7
20260506172747 22 200 0.0 12.9 0.00 0.00 0.00 56 1004.7
20260506172647 22 180 0.0 12.9 0.00 0.00 0.00 56 1004.8
20260506172546 22 182 0.0 12.9 0.00 0.00 0.00 55 1004.5
20260506172448 22 200 0.0 12.9 0.00 0.00 0.00 55 1004.8
20260506172348 22 206 3.2 14.5 0.00 0.00 0.00 55 1004.8
20260506172331 22 199 0.0 14.5 0.00 0.00 0.00 55 1004.8
20260506172315 22 207 8.0 14.5 0.00 0.00 0.00 55 1004.8
20260506172250 22 187 1.6 14.5 0.00 0.00 0.00 55 1005.0
20260506172009 22 195 3.2 14.5 0.00 0.00 0.00 55 1004.7
20260506171737 22 194 0.0 6.4 0.00 0.00 0.00 55 1004.8
20260506171731 22 190 1.6 12.9 0.00 0.00 0.00 55 1005.2
20260506171722 22 188 0.0 14.5 0.00 0.00 0.00 55 1004.9
20260506171700 22 209 3.2 14.5 0.00 0.00 0.00 55 1005.0
20260506171643 22 214 8.0 14.5 0.00 0.00 0.00 55 1005.0
20260506171627 22 203 1.6 12.9 0.00 0.00 0.00 55 1004.9
20260506171611 22 208 0.0 12.9 0.00 0.00 0.00 55 1004.7
20260506171556 22 212 0.0 12.9 0.00 0.00 0.00 55 1005.0
20260506171536 22 190 1.6 12.9 0.00 0.00 0.00 55 1005.2
20260506171051 22 202 4.8 12.9 0.00 0.00 0.00 55 1004.8
20260506170828 22 221 8.0 12.9 0.00 0.00 0.00 55 1005.0
20260506170812 22 217 3.2 4.8 0.00 0.00 0.00 56 1004.8
20260506170755 22 194 0.0 6.4 0.00 0.00 0.00 55 1004.8
20260506170445 22 224 3.2 6.4 0.00 0.00 0.00 55 1005.0
20260506170345 22 203 1.6 6.4 0.00 0.00 0.00 56 1004.9
20260506170244 22 109 0.0 6.4 0.00 0.00 0.00 55 1004.9
20260506170145 22 190 0.0 6.4 0.00 0.00 0.00 55 1004.9
20260506170059 22 196 0.0 6.4 0.00 0.00 0.00 55 1005.1
20260506165946 22 217 0.0 6.4 0.00 0.00 0.00 55 1005.0
20260506165916 22 211 0.0 6.4 0.00 0.00 0.00 55 1004.8
20260506165901 22 214 0.0 6.4 0.00 0.00 0.00 55 1004.8
20260506165542 22 232 1.6 4.8 0.00 0.00 0.00 55 1004.8
20260506165443 22 222 3.2 4.8 0.00 0.00 0.00 55 1004.6
20260506165346 22 268 0.0 1.6 0.00 0.00 0.00 55 1004.9
20260506165323 22 201 1.6 1.6 0.00 0.00 0.00 55 1004.9
20260506165308 22 195 0.0 0.0 0.00 0.00 0.00 55 1004.9
20260506165040 22 191 0.0 0.0 0.00 0.00 0.00 55 1004.9
20260506164630 22 189 0.0 9.7 0.00 0.00 0.00 54 1004.8
20260506164529 22 196 0.0 9.7 0.00 0.00 0.00 54 1004.9
20260506164429 22 216 1.6 9.7 0.00 0.00 0.00 54 1004.9
20260506164329 22 207 6.4 9.7 0.00 0.00 0.00 54 1004.9
20260506164229 22 203 0.0 9.7 0.00 0.00 0.00 54 1005.1
20260506164129 22 180 0.0 9.7 0.00 0.00 0.00 54 1004.9
20260506164028 22 181 0.0 12.9 0.00 0.00 0.00 54 1004.8
20260506163929 22 222 1.6 12.9 0.00 0.00 0.00 54 1004.9
20260506163828 22 175 0.0 12.9 0.00 0.00 0.00 54 1005.1
20260506163729 22 176 0.0 12.9 0.00 0.00 0.00 54 1004.9
20260506163630 22 183 0.0 12.9 0.00 0.00 0.00 54 1005.0
20260506163528 22 177 0.0 12.9 0.00 0.00 0.00 54 1005.0
20260506163429 22 195 0.0 12.9 0.00 0.00 0.00 54 1005.0
20260506163329 22 240 1.6 12.9 0.00 0.00 0.00 54 1004.8
20260506163228 22 121 0.0 12.9 0.00 0.00 0.00 54 1004.9
20260506163128 22 196 4.8 12.9 0.00 0.00 0.00 54 1004.9
20260506163028 22 218 3.2 9.7 0.00 0.00 0.00 54 1005.0
20260506162928 22 188 0.0 9.7 0.00 0.00 0.00 54 1004.9
20260506162905 22 177 1.6 9.7 0.00 0.00 0.00 54 1005.1
20260506162848 22 189 0.0 9.7 0.00 0.00 0.00 54 1005.2
20260506162529 22 189 0.0 9.7 0.00 0.00 0.00 54 1005.0
20260506162428 22 229 3.2 9.7 0.00 0.00 0.00 54 1004.9
20260506162330 22 175 3.2 9.7 0.00 0.00 0.00 54 1005.1
20260506162228 22 188 0.0 9.7 0.00 0.00 0.00 54 1005.3
20260506162128 22 180 0.0 6.4 0.00 0.00 0.00 54 1005.4
20260506162041 22 219 4.8 11.3 0.00 0.00 0.00 54 1005.2
20260506161929 22 207 1.6 12.9 0.00 0.00 0.00 54 1005.0
20260506161824 23 187 1.6 12.9 0.00 0.00 0.00 53 1005.0
20260506161724 23 183 0.0 12.9 0.00 0.00 0.00 54 1005.2
20260506161624 23 190 0.0 12.9 0.00 0.00 0.00 54 1005.2
20260506161525 23 185 0.0 12.9 0.00 0.00 0.00 54 1005.1
20260506161425 23 196 0.0 12.9 0.00 0.00 0.00 54 1005.1
20260506161414 23 199 0.0 9.7 0.00 0.00 0.00 53 1005.0
20260506161409 23 210 0.0 4.8 0.00 0.00 0.00 52 1005.2
20260506161401 23 193 0.0 9.7 0.00 0.00 0.00 51 1005.3
20260506161355 23 196 1.6 12.9 0.00 0.00 0.00 53 1005.2
20260506161337 23 188 0.0 12.9 0.00 0.00 0.00 54 1005.4
20260506161321 23 190 0.0 12.9 0.00 0.00 0.00 54 1005.1
20260506161259 23 228 4.8 9.7 0.00 0.00 0.00 53 1005.1
20260506161242 23 196 0.0 9.7 0.00 0.00 0.00 53 1005.2
20260506161226 23 196 0.0 9.7 0.00 0.00 0.00 53 1005.2
20260506161211 23 188 0.0 9.7 0.00 0.00 0.00 54 1005.3
20260506161155 23 192 0.0 9.7 0.00 0.00 0.00 54 1005.0
20260506161138 23 199 0.0 9.7 0.00 0.00 0.00 53 1005.0
20260506160912 23 212 0.0 9.7 0.00 0.00 0.00 53 1005.2
20260506160854 23 194 1.6 9.7 0.00 0.00 0.00 53 1005.0
20260506160839 23 190 0.0 9.7 0.00 0.00 0.00 53 1005.1
20260506160556 23 182 0.0 4.8 0.00 0.00 0.00 53 1005.2
20260506160101 23 189 0.0 4.8 0.00 0.00 0.00 52 1005.1
20260506155824 23 210 0.0 4.8 0.00 0.00 0.00 52 1005.2
20260506155538 23 178 0.0 4.8 0.00 0.00 0.00 52 1005.2
20260506155522 23 205 0.0 4.8 0.00 0.00 0.00 52 1005.2
20260506155507 23 204 1.6 4.8 0.00 0.00 0.00 52 1005.0
20260506155445 23 192 0.0 4.8 0.00 0.00 0.00 52 1005.3
20260506155429 23 212 0.0 4.8 0.00 0.00 0.00 52 1005.2
20260506155152 23 198 0.0 4.8 0.00 0.00 0.00 52 1005.3
20260506154705 23 186 0.0 4.8 0.00 0.00 0.00 51 1005.3
20260506154648 23 163 0.0 4.8 0.00 0.00 0.00 52 1005.4
20260506154412 23 156 0.0 4.8 0.00 0.00 0.00 51 1005.3
20260506154357 23 184 0.0 9.7 0.00 0.00 0.00 51 1005.2
20260506154131 23 127 0.0 9.7 0.00 0.00 0.00 52 1005.2
20260506154114 23 185 0.0 9.7 0.00 0.00 0.00 52 1005.3
20260506154058 23 188 0.0 9.7 0.00 0.00 0.00 51 1005.3
20260506153822 23 157 0.0 9.7 0.00 0.00 0.00 51 1005.4
20260506153803 23 193 0.0 9.7 0.00 0.00 0.00 51 1005.3
20260506153537 23 109 0.0 9.7 0.00 0.00 0.00 51 1005.3
20260506153258 23 188 0.0 9.7 0.00 0.00 0.00 50 1005.6
20260506153242 23 209 3.2 11.3 0.00 0.00 0.00 50 1005.2
20260506153016 23 205 0.0 11.3 0.00 0.00 0.00 50 1005.6
20260506152916 23 196 0.0 11.3 0.00 0.00 0.00 50 1005.3
20260506152811 23 198 0.0 11.3 0.00 0.00 0.00 50 1005.3
20260506152710 23 175 0.0 11.3 0.00 0.00 0.00 50 1005.5
20260506152611 23 194 0.0 11.3 0.00 0.00 0.00 51 1005.6
20260506152510 23 188 0.0 11.3 0.00 0.00 0.00 50 1005.2
20260506152448 23 198 0.0 12.9 0.00 0.00 0.00 50 1005.5
20260506152430 23 188 0.0 12.9 0.00 0.00 0.00 50 1005.5
20260506152146 23 99 0.0 12.9 0.00 0.00 0.00 50 1005.4
20260506152123 23 211 4.8 12.9 0.00 0.00 0.00 50 1005.3
20260506152107 23 218 1.6 12.9 0.00 0.00 0.00 49 1005.5
20260506152050 23 241 3.2 12.9 0.00 0.00 0.00 49 1005.4
20260506152035 23 244 6.4 12.9 0.00 0.00 0.00 49 1005.5
20260506152019 23 215 1.6 14.5 0.00 0.00 0.00 49 1005.5
20260506151753 23 214 1.6 14.5 0.00 0.00 0.00 49 1005.4
20260506151211 23 183 0.0 14.5 0.00 0.00 0.00 49 1005.3
20260506151111 23 231 3.2 14.5 0.00 0.00 0.00 49 1005.6
20260506151011 23 212 6.4 14.5 0.00 0.00 0.00 49 1005.5
20260506150910 23 198 1.6 14.5 0.00 0.00 0.00 49 1005.4
20260506150807 23 189 0.0 14.5 0.00 0.00 0.00 49 1005.5
20260506150654 23 185 0.0 1.6 0.00 0.00 0.00 49 1005.2
20260506150553 23 198 0.0 3.2 0.00 0.00 0.00 49 1005.3
20260506150501 23 176 0.0 3.2 0.00 0.00 0.00 49 1005.5
20260506150453 24 179 0.0 3.2 0.00 0.00 0.00 49 1005.5
20260506150353 24 187 0.0 4.8 0.00 0.00 0.00 49 1005.3
20260506150304 24 186 0.0 6.4 0.00 0.00 0.00 49 1005.5
20260506150154 24 179 0.0 6.4 0.00 0.00 0.00 49 1005.6
20260506150052 24 130 0.0 6.4 0.00 0.00 0.00 50 1005.4
20260506150000 24 192 0.0 6.4 0.00 0.00 0.00 50 1005.2
20260506145952 24 192 0.0 6.4 0.00 0.00 0.00 49 1005.2
20260506145852 24 186 0.0 6.4 0.00 0.00 0.00 49 1005.4
20260506145752 24 192 0.0 6.4 0.00 0.00 0.00 49 1005.4
20260506145652 24 185 0.0 6.4 0.00 0.00 0.00 49 1005.4
20260506145541 24 171 1.6 11.3 0.00 0.00 0.00 49 1005.3
20260506145500 24 196 0.0 11.3 0.00 0.00 0.00 49 1005.5
20260506145440 24 198 1.6 11.3 0.00 0.00 0.00 48 1005.5
20260506145340 24 189 3.2 11.3 0.00 0.00 0.00 48 1005.6
20260506145315 24 250 1.6 11.3 0.00 0.00 0.00 48 1005.8
20260506145300 24 202 0.0 11.3 0.00 0.00 0.00 48 1005.5
20260506145000 24 184 0.0 16.1 0.00 0.00 0.00 49 1005.6
20260506144941 24 171 0.0 16.1 0.00 0.00 0.00 48 1005.6
20260506144840 24 186 0.0 16.1 0.00 0.00 0.00 50 1005.5
20260506144740 24 196 0.0 16.1 0.00 0.00 0.00 50 1005.7
20260506144706 24 207 0.0 12.9 0.00 0.00 0.00 47 1005.8
20260506144658 24 221 4.8 16.1 0.00 0.00 0.00 49 1005.6
20260506144642 24 216 0.0 16.1 0.00 0.00 0.00 49 1005.6
20260506144618 24 193 0.0 16.1 0.00 0.00 0.00 49 1005.5
20260506144600 24 201 0.0 16.1 0.00 0.00 0.00 49 1005.8
20260506144545 24 179 0.0 16.1 0.00 0.00 0.00 49 1005.7
20260506144528 24 188 1.6 16.1 0.00 0.00 0.00 49 1005.7
20260506144512 24 240 0.0 9.7 0.00 0.00 0.00 49 1005.7
20260506144458 24 195 3.2 9.7 0.00 0.00 0.00 48 1005.6
20260506144450 24 212 1.6 9.7 0.00 0.00 0.00 48 1005.6
20260506144436 25 177 0.0 9.7 0.00 0.00 0.00 48 1005.7
20260506144420 25 182 0.0 9.7 0.00 0.00 0.00 49 1005.6
20260506144405 25 194 0.0 9.7 0.00 0.00 0.00 48 1005.8
20260506144349 25 184 0.0 9.7 0.00 0.00 0.00 49 1005.7
20260506144334 25 140 1.6 9.7 0.00 0.00 0.00 48 1005.7
20260506144104 24 187 0.0 12.9 0.00 0.00 0.00 49 1005.6
20260506144048 24 164 0.0 12.9 0.00 0.00 0.00 48 1005.8
20260506144032 24 280 6.4 12.9 0.00 0.00 0.00 48 1005.9
20260506143545 24 187 0.0 12.9 0.00 0.00 0.00 48 1005.8
20260506143309 24 230 0.0 12.9 0.00 0.00 0.00 48 1005.9
20260506143254 24 184 0.0 12.9 0.00 0.00 0.00 49 1005.8
20260506143238 24 216 4.8 12.9 0.00 0.00 0.00 48 1005.8
20260506143225 24 228 8.0 16.1 0.00 0.00 0.00 48 1005.8
20260506142955 24 234 0.0 16.1 0.00 0.00 0.00 48 1005.8
20260506142240 23 178 0.0 20.9 0.00 0.00 0.00 49 1006.0
20260506141741 23 191 0.0 20.9 0.00 0.00 0.00 50 1006.2
20260506141725 23 176 0.0 20.9 0.00 0.00 0.00 49 1005.7
20260506141452 23 205 4.8 20.9 0.00 0.00 0.00 50 1006.2
20260506141443 23 194 0.0 20.9 0.00 0.00 0.00 49 1005.9
20260506141426 23 191 1.6 20.9 0.00 0.00 0.00 49 1005.8
20260506141105 23 256 4.8 20.9 0.00 0.00 0.00 49 1006.0
20260506141006 23 252 17.7 20.9 0.00 0.00 0.00 49 1005.8
20260506140938 23 180 3.2 16.1 0.00 0.00 0.00 49 1005.8
20260506140905 23 239 3.2 16.1 0.00 0.00 0.00 48 1005.9
20260506140805 23 255 1.6 16.1 0.00 0.00 0.00 48 1005.8
20260506140705 23 221 3.2 16.1 0.00 0.00 0.00 48 1005.8
20260506140605 23 133 0.0 16.1 0.00 0.00 0.00 48 1005.7
20260506140504 23 169 1.6 16.1 0.00 0.00 0.00 48 1005.6
20260506140437 23 206 3.2 16.1 0.00 0.00 0.00 48 1005.6
20260506140406 23 204 6.4 16.1 0.00 0.00 0.00 48 1005.8
20260506140304 23 223 3.2 14.5 0.00 0.00 0.00 49 1005.8
20260506140200 23 202 1.6 14.5 0.00 0.00 0.00 50 1005.9
20260506140101 23 230 6.4 14.5 0.00 0.00 0.00 50 1005.8
20260506135959 23 239 3.2 16.1 0.00 0.00 0.00 50 1005.7
20260506135946 23 208 3.2 16.1 0.00 0.00 0.00 50 1005.7
20260506135937 23 50 1.6 22.5 0.00 0.00 0.00 49 1006.2
20260506135921 23 250 6.4 22.5 0.00 0.00 0.00 49 1006.0
20260506135621 24 238 3.2 11.3 0.00 0.00 0.00 49 1005.9
20260506135614 23 167 0.0 22.5 0.00 0.00 0.00 49 1005.8
20260506135558 23 82 0.0 22.5 0.00 0.00 0.00 49 1005.9
20260506135546 23 188 4.8 22.5 0.00 0.00 0.00 49 1005.9
20260506135536 24 225 3.2 22.5 0.00 0.00 0.00 48 1006.0
20260506135518 24 225 6.4 22.5 0.00 0.00 0.00 48 1005.9
20260506135502 24 256 9.7 22.5 0.00 0.00 0.00 47 1005.8
20260506135225 24 216 12.9 22.5 0.00 0.00 0.00 47 1005.9
20260506135212 24 249 4.8 16.1 0.00 0.00 0.00 48 1005.7
20260506135203 24 227 14.5 16.1 0.00 0.00 0.00 48 1005.7
20260506134700 23 233 1.6 14.5 0.00 0.00 0.00 49 1006.2
20260506134643 23 203 6.4 14.5 0.00 0.00 0.00 49 1006.2
20260506134352 24 216 0.0 11.3 0.00 0.00 0.00 50 1005.9
20260506134251 24 264 3.2 9.7 0.00 0.00 0.00 51 1005.7
20260506134152 24 219 6.4 20.9 0.00 0.00 0.00 50 1005.9
20260506134134 24 200 3.2 20.9 0.00 0.00 0.00 51 1005.8
20260506134119 24 196 1.6 20.9 0.00 0.00 0.00 50 1006.0
20260506134105 24 202 1.6 20.9 0.00 0.00 0.00 51 1006.0
20260506133751 24 196 0.0 20.9 0.00 0.00 0.00 50 1006.0
20260506133654 24 174 0.0 20.9 0.00 0.00 0.00 50 1005.9
20260506133553 24 167 0.0 20.9 0.00 0.00 0.00 50 1005.8
20260506133452 24 222 3.2 20.9 0.00 0.00 0.00 49 1006.2
20260506133425 24 100 0.0 20.9 0.00 0.00 0.00 49 1005.8
20260506133353 24 230 1.6 20.9 0.00 0.00 0.00 49 1005.8
20260506133252 24 262 4.8 20.9 0.00 0.00 0.00 49 1005.8
20260506133217 24 136 1.6 25.7 0.00 0.00 0.00 50 1005.9
20260506133201 24 191 0.0 25.7 0.00 0.00 0.00 51 1006.0
20260506132918 24 203 1.6 25.7 0.00 0.00 0.00 50 1006.0
20260506132909 24 260 0.0 25.7 0.00 0.00 0.00 50 1006.0
20260506132853 24 162 0.0 25.7 0.00 0.00 0.00 50 1006.0
20260506132838 24 203 0.0 25.7 0.00 0.00 0.00 51 1005.9
20260506132601 23 196 3.2 25.7 0.00 0.00 0.00 51 1005.9
20260506132548 24 201 6.4 25.7 0.00 0.00 0.00 50 1006.0
20260506132539 24 307 8.0 25.7 0.00 0.00 0.00 51 1006.0
20260506132522 24 313 9.7 27.4 0.00 0.00 0.00 50 1006.3
20260506131940 24 196 3.2 27.4 0.00 0.00 0.00 50 1006.2
20260506131912 24 205 1.6 27.4 0.00 0.00 0.00 50 1006.0
20260506131842 24 194 0.0 27.4 0.00 0.00 0.00 51 1006.0
20260506131744 24 144 0.0 27.4 0.00 0.00 0.00 51 1006.2
20260506131732 24 220 6.4 22.5 0.00 0.00 0.00 51 1005.9
20260506131722 23 124 0.0 27.4 0.00 0.00 0.00 51 1006.0
20260506131706 23 205 1.6 27.4 0.00 0.00 0.00 51 1006.3
20260506131650 23 204 3.2 27.4 0.00 0.00 0.00 51 1006.0
20260506131637 23 182 17.7 27.4 0.00 0.00 0.00 50 1006.0
20260506131407 23 199 8.0 22.5 0.00 0.00 0.00 50 1005.9
20260506131142 23 228 8.0 22.5 0.00 0.00 0.00 50 1006.0
20260506131128 24 272 9.7 22.5 0.00 0.00 0.00 51 1006.0
20260506131112 24 236 9.7 22.5 0.00 0.00 0.00 51 1005.9
20260506130844 23 193 0.0 22.5 0.00 0.00 0.00 51 1006.3
20260506130828 23 157 0.0 22.5 0.00 0.00 0.00 53 1006.3
20260506130813 23 193 4.8 22.5 0.00 0.00 0.00 52 1006.3
20260506130537 24 257 16.1 22.5 0.00 0.00 0.00 50 1006.2
20260506130525 24 194 12.9 17.7 0.00 0.00 0.00 50 1006.2
20260506130206 24 173 0.0 17.7 0.00 0.00 0.00 49 1005.9
20260506130107 24 125 1.6 17.7 0.00 0.00 0.00 50 1006.0
20260506130017 25 227 9.7 17.7 0.00 0.00 0.00 50 1006.0
20260506130001 25 248 0.0 17.7 0.00 0.00 0.00 51 1005.8
20260506125947 25 208 1.6 17.7 0.00 0.00 0.00 50 1005.8
20260506125937 25 187 0.0 17.7 0.00 0.00 0.00 50 1005.9
20260506125922 25 180 0.0 17.7 0.00 0.00 0.00 50 1006.2
20260506125906 25 179 0.0 17.7 0.00 0.00 0.00 49 1006.3
20260506125632 25 199 3.2 16.1 0.00 0.00 0.00 50 1006.3
20260506125620 25 167 0.0 16.1 0.00 0.00 0.00 50 1006.3
20260506125348 24 134 1.6 24.1 0.00 0.00 0.00 51 1006.2
20260506125334 24 193 0.0 24.1 0.00 0.00 0.00 51 1006.0
20260506125318 24 188 0.0 24.1 0.00 0.00 0.00 50 1006.0
20260506125305 24 216 6.4 24.1 0.00 0.00 0.00 50 1006.3
20260506125249 24 230 1.6 24.1 0.00 0.00 0.00 51 1006.3
20260506125020 23 111 0.0 24.1 0.00 0.00 0.00 53 1006.3
20260506125004 23 214 9.7 24.1 0.00 0.00 0.00 51 1006.3
20260506124511 24 213 8.0 24.1 0.00 0.00 0.00 51 1006.4
20260506124224 24 135 0.0 20.9 0.00 0.00 0.00 51 1006.2
20260506124208 24 193 0.0 20.9 0.00 0.00 0.00 51 1006.3
20260506123902 23 212 0.0 16.1 0.00 0.00 0.00 53 1006.3
20260506123857 24 131 1.6 12.9 0.00 0.00 0.00 51 1006.2
20260506123845 24 78 3.2 12.9 0.00 0.00 0.00 51 1006.2
20260506123835 24 251 4.8 12.9 0.00 0.00 0.00 52 1006.2
20260506123818 23 281 8.0 12.9 0.00 0.00 0.00 52 1006.5
20260506123802 23 192 0.0 16.1 0.00 0.00 0.00 53 1006.4
20260506123747 23 216 6.4 16.1 0.00 0.00 0.00 53 1006.4
20260506123730 23 212 0.0 16.1 0.00 0.00 0.00 53 1006.3
20260506123501 23 247 1.6 24.1 0.00 0.00 0.00 53 1006.6
20260506123444 23 157 0.0 24.1 0.00 0.00 0.00 54 1006.3
20260506123209 23 204 1.6 24.1 0.00 0.00 0.00 53 1006.5
20260506123153 23 156 0.0 24.1 0.00 0.00 0.00 54 1006.5
20260506123143 23 143 0.0 24.1 0.00 0.00 0.00 54 1006.5
20260506122651 23 194 4.8 24.1 0.00 0.00 0.00 53 1006.6
20260506122636 23 314 0.0 24.1 0.00 0.00 0.00 54 1006.6
20260506122620 24 224 17.7 24.1 0.00 0.00 0.00 53 1006.5
20260506122608 24 219 11.3 17.7 0.00 0.00 0.00 53 1006.6
20260506122028 24 209 0.0 12.9 0.00 0.00 0.00 52 1006.4
20260506122006 24 177 0.0 14.5 0.00 0.00 0.00 52 1006.6
20260506121942 24 212 0.0 14.5 0.00 0.00 0.00 52 1006.4
20260506121618 24 195 1.6 14.5 0.00 0.00 0.00 51 1006.3
20260506121519 25 216 4.8 14.5 0.00 0.00 0.00 51 1006.3
20260506121420 25 178 0.0 14.5 0.00 0.00 0.00 51 1006.5
20260506121318 25 191 0.0 14.5 0.00 0.00 0.00 52 1006.6
20260506121216 24 198 0.0 14.5 0.00 0.00 0.00 53 1006.6
20260506121111 24 200 0.0 24.1 0.00 0.00 0.00 53 1006.5
20260506121049 24 145 1.6 24.1 0.00 0.00 0.00 52 1006.4
20260506121033 23 215 1.6 24.1 0.00 0.00 0.00 52 1006.4
20260506120806 23 192 1.6 24.1 0.00 0.00 0.00 52 1006.5
20260506120707 23 7 8.0 24.1 0.00 0.00 0.00 52 1006.6
20260506120625 23 241 3.2 25.7 0.00 0.00 0.00 54 1006.4
20260506120618 23 329 1.6 25.7 0.00 0.00 0.00 54 1006.6
20260506120602 23 217 6.4 25.7 0.00 0.00 0.00 53 1006.4
20260506120546 23 178 1.6 25.7 0.00 0.00 0.00 54 1006.6
20260506120529 23 241 3.2 25.7 0.00 0.00 0.00 54 1006.4
20260506120206 23 269 4.8 35.4 0.00 0.00 0.00 54 1006.6
20260506120142 23 219 12.9 35.4 0.00 0.00 0.00 53 1006.4
20260506120125 23 179 8.0 35.4 0.00 0.00 0.00 54 1006.3
20260506115806 23 197 3.2 35.4 0.00 0.00 0.00 54 1006.5
20260506115704 23 232 3.2 35.4 0.00 0.00 0.00 53 1006.3
20260506115615 23 209 1.6 35.4 0.00 0.00 0.00 53 1006.4
20260506115559 23 218 1.6 35.4 0.00 0.00 0.00 54 1006.5
20260506115544 23 210 4.8 35.4 0.00 0.00 0.00 55 1006.2
20260506115317 23 226 6.4 35.4 0.00 0.00 0.00 55 1006.3
20260506115300 23 207 1.6 24.1 0.00 0.00 0.00 54 1006.5
20260506115243 23 169 11.3 25.7 0.00 0.00 0.00 53 1006.5
20260506115226 23 196 4.8 25.7 0.00 0.00 0.00 53 1006.5
20260506114951 23 189 0.0 25.7 0.00 0.00 0.00 54 1006.3
20260506114634 23 262 6.4 25.7 0.00 0.00 0.00 55 1006.5
20260506114535 23 203 3.2 25.7 0.00 0.00 0.00 54 1006.4
20260506114437 23 312 3.2 25.7 0.00 0.00 0.00 55 1006.4
20260506114420 23 179 1.6 25.7 0.00 0.00 0.00 55 1006.3
20260506114406 23 207 3.2 25.7 0.00 0.00 0.00 55 1006.5
20260506114358 23 207 3.2 25.7 0.00 0.00 0.00 54 1006.5
20260506114112 23 339 1.6 20.9 0.00 0.00 0.00 54 1006.4
20260506114055 23 68 1.6 20.9 0.00 0.00 0.00 56 1006.2
20260506113808 23 189 8.0 25.7 0.00 0.00 0.00 55 1006.7
20260506113800 23 273 3.2 25.7 0.00 0.00 0.00 55 1006.4
20260506113744 23 214 1.6 25.7 0.00 0.00 0.00 55 1006.3
20260506113728 23 127 0.0 25.7 0.00 0.00 0.00 55 1006.3
20260506113712 23 230 1.6 25.7 0.00 0.00 0.00 56 1006.6
20260506113438 23 249 3.2 25.7 0.00 0.00 0.00 56 1006.4
20260506113100 23 233 12.9 25.7 0.00 0.00 0.00 55 1006.4
20260506113001 23 267 4.8 25.7 0.00 0.00 0.00 56 1006.3
20260506112900 23 131 11.3 25.7 0.00 0.00 0.00 56 1006.3
20260506112759 22 179 3.2 22.5 0.00 0.00 0.00 56 1006.0
20260506112744 22 206 0.0 22.5 0.00 0.00 0.00 57 1006.0
20260506112655 22 207 0.0 22.5 0.00 0.00 0.00 57 1006.6
20260506112554 23 234 9.7 22.5 0.00 0.00 0.00 56 1006.6
20260506112529 23 219 6.4 16.1 0.00 0.00 0.00 56 1006.3
20260506112513 23 207 6.4 12.9 0.00 0.00 0.00 56 1006.5
20260506112238 23 180 3.2 12.9 0.00 0.00 0.00 57 1006.4
20260506112153 23 208 1.6 12.9 0.00 0.00 0.00 56 1006.4
20260506112117 23 185 0.0 12.9 0.00 0.00 0.00 56 1006.5
20260506112100 23 238 0.0 12.9 0.00 0.00 0.00 55 1006.5
20260506111829 23 209 1.6 22.5 0.00 0.00 0.00 56 1006.5
20260506111810 23 192 0.0 14.5 0.00 0.00 0.00 56 1006.4
20260506111754 23 190 0.0 16.1 0.00 0.00 0.00 56 1006.7
20260506111529 23 173 0.0 17.7 0.00 0.00 0.00 55 1006.6
20260506111514 23 190 0.0 22.5 0.00 0.00 0.00 56 1006.5
20260506111459 23 209 0.0 22.5 0.00 0.00 0.00 55 1006.5
20260506111442 23 209 1.6 22.5 0.00 0.00 0.00 56 1006.5
20260506111129 23 175 0.0 22.5 0.00 0.00 0.00 55 1006.6
20260506111029 23 251 0.0 22.5 0.00 0.00 0.00 56 1006.3
20260506110928 23 194 1.6 22.5 0.00 0.00 0.00 56 1006.6
20260506110828 23 141 3.2 22.5 0.00 0.00 0.00 56 1006.5
20260506110724 23 151 0.0 22.5 0.00 0.00 0.00 56 1006.6
20260506110625 23 5 4.8 22.5 0.00 0.00 0.00 56 1006.4
20260506110524 23 140 1.6 22.5 0.00 0.00 0.00 56 1006.5
20260506110500 24 172 6.4 22.5 0.00 0.00 0.00 55 1006.3
20260506110446 24 172 0.0 22.5 0.00 0.00 0.00 56 1006.2
20260506110219 23 224 3.2 22.5 0.00 0.00 0.00 55 1006.5
20260506110118 23 250 0.0 22.5 0.00 0.00 0.00 55 1006.6
20260506110017 23 198 0.0 22.5 0.00 0.00 0.00 55 1006.6
20260506105916 23 177 0.0 22.5 0.00 0.00 0.00 55 1006.6
20260506105817 23 175 0.0 22.5 0.00 0.00 0.00 57 1006.6
20260506105716 23 176 0.0 22.5 0.00 0.00 0.00 56 1006.5
20260506105649 23 239 4.8 22.5 0.00 0.00 0.00 56 1006.6
20260506105633 23 307 6.4 16.1 0.00 0.00 0.00 56 1006.5
20260506105312 23 226 8.0 16.1 0.00 0.00 0.00 55 1006.4
20260506105212 23 22 6.4 16.1 0.00 0.00 0.00 55 1006.7
20260506105110 23 261 6.4 16.1 0.00 0.00 0.00 56 1006.7
20260506105011 23 41 12.9 16.1 0.00 0.00 0.00 55 1006.5
20260506104910 23 236 6.4 12.9 0.00 0.00 0.00 56 1006.7
20260506104808 23 293 1.6 12.9 0.00 0.00 0.00 55 1006.5
20260506104746 23 200 0.0 12.9 0.00 0.00 0.00 56 1006.6
20260506104729 23 196 0.0 22.5 0.00 0.00 0.00 55 1006.5
20260506104457 23 196 0.0 22.5 0.00 0.00 0.00 56 1006.9
20260506104448 23 166 0.0 22.5 0.00 0.00 0.00 55 1006.7
20260506104432 23 232 4.8 22.5 0.00 0.00 0.00 56 1006.7
20260506104414 23 196 0.0 22.5 0.00 0.00 0.00 56 1006.9
20260506104104 23 175 0.0 22.5 0.00 0.00 0.00 56 1006.8
20260506104004 23 233 0.0 22.5 0.00 0.00 0.00 56 1006.7
20260506103901 23 145 0.0 22.5 0.00 0.00 0.00 56 1006.5
20260506103800 23 297 0.0 22.5 0.00 0.00 0.00 55 1006.5
20260506103700 23 225 3.2 22.5 0.00 0.00 0.00 55 1006.5
20260506103604 23 74 0.0 22.5 0.00 0.00 0.00 56 1006.8
20260506103548 22 171 0.0 22.5 0.00 0.00 0.00 57 1006.6
20260506103531 23 199 1.6 25.7 0.00 0.00 0.00 56 1006.6
20260506103516 23 226 16.1 25.7 0.00 0.00 0.00 55 1006.8
20260506103454 23 253 0.0 25.7 0.00 0.00 0.00 56 1006.6
20260506103436 23 230 6.4 25.7 0.00 0.00 0.00 56 1006.7
20260506103201 23 191 1.6 25.7 0.00 0.00 0.00 56 1006.7
20260506103145 23 191 0.0 25.7 0.00 0.00 0.00 56 1006.6
20260506103122 23 186 0.0 25.7 0.00 0.00 0.00 55 1006.7
20260506102625 23 275 4.8 17.7 0.00 0.00 0.00 55 1006.7
20260506102349 23 161 1.6 17.7 0.00 0.00 0.00 55 1006.9
20260506102106 23 48 0.0 17.7 0.00 0.00 0.00 56 1006.5
20260506102049 23 287 6.4 17.7 0.00 0.00 0.00 56 1006.8
20260506101730 23 334 1.6 20.9 0.00 0.00 0.00 55 1006.5
20260506101637 23 175 3.2 20.9 0.00 0.00 0.00 55 1006.5
20260506101629 23 190 6.4 20.9 0.00 0.00 0.00 55 1006.6
20260506101529 23 211 1.6 20.9 0.00 0.00 0.00 55 1006.7
20260506101428 23 154 1.6 20.9 0.00 0.00 0.00 55 1006.7
20260506101329 23 202 0.0 20.9 0.00 0.00 0.00 57 1006.7
20260506101224 23 227 1.6 20.9 0.00 0.00 0.00 55 1007.0
20260506101135 23 180 0.0 20.9 0.00 0.00 0.00 56 1007.0
20260506101127 23 180 0.0 20.9 0.00 0.00 0.00 57 1006.6
20260506101022 23 212 0.0 20.9 0.00 0.00 0.00 56 1006.8
20260506100923 23 248 14.5 20.9 0.00 0.00 0.00 55 1006.7
20260506100824 23 187 0.0 20.9 0.00 0.00 0.00 56 1006.7
20260506100752 23 203 1.6 20.9 0.00 0.00 0.00 56 1006.7
20260506100735 23 211 1.6 25.7 0.00 0.00 0.00 56 1006.7
20260506100728 23 211 0.0 25.7 0.00 0.00 0.00 56 1006.7
20260506100713 23 180 0.0 25.7 0.00 0.00 0.00 56 1006.7
20260506100436 22 176 0.0 25.7 0.00 0.00 0.00 57 1006.8
20260506100421 22 173 1.6 25.7 0.00 0.00 0.00 57 1006.8
20260506100405 22 91 6.4 25.7 0.00 0.00 0.00 57 1006.7
20260506100357 22 280 9.7 25.7 0.00 0.00 0.00 57 1006.7
20260506100120 22 181 0.0 25.7 0.00 0.00 0.00 58 1006.6
20260506100105 22 225 3.2 25.7 0.00 0.00 0.00 59 1006.5
20260506095827 22 181 0.0 17.7 0.00 0.00 0.00 58 1006.6
20260506095517 22 137 0.0 17.7 0.00 0.00 0.00 58 1006.4
20260506095416 22 247 8.0 17.7 0.00 0.00 0.00 58 1006.7
20260506095317 22 122 0.0 17.7 0.00 0.00 0.00 58 1006.5
20260506095305 22 232 3.2 17.7 0.00 0.00 0.00 58 1006.6
20260506095246 22 143 3.2 17.7 0.00 0.00 0.00 58 1006.6
20260506095237 22 293 4.8 17.7 0.00 0.00 0.00 58 1006.6
20260506094913 22 311 6.4 17.7 0.00 0.00 0.00 57 1006.6
20260506094812 22 211 0.0 16.1 0.00 0.00 0.00 57 1006.8
20260506094709 22 187 0.0 16.1 0.00 0.00 0.00 57 1006.4
20260506094624 22 180 0.0 16.1 0.00 0.00 0.00 58 1006.7
20260506094600 22 186 0.0 22.5 0.00 0.00 0.00 58 1006.7
20260506094500 22 192 0.0 22.5 0.00 0.00 0.00 57 1006.7
20260506094359 22 83 1.6 22.5 0.00 0.00 0.00 58 1006.6
20260506094254 22 169 6.4 22.5 0.00 0.00 0.00 57 1006.8
20260506094152 22 150 0.0 22.5 0.00 0.00 0.00 57 1006.5
20260506094112 22 82 0.0 22.5 0.00 0.00 0.00 57 1006.6
20260506094053 22 190 1.6 22.5 0.00 0.00 0.00 57 1006.6
20260506093952 22 50 0.0 22.5 0.00 0.00 0.00 56 1006.7
20260506093853 23 208 1.6 22.5 0.00 0.00 0.00 56 1006.7
20260506093829 23 194 0.0 22.5 0.00 0.00 0.00 57 1006.7
20260506093815 23 224 1.6 22.5 0.00 0.00 0.00 56 1006.6
20260506093801 23 62 8.0 22.5 0.00 0.00 0.00 56 1006.6
20260506093444 23 114 1.6 16.1 0.00 0.00 0.00 56 1006.6
20260506093341 23 199 0.0 16.1 0.00 0.00 0.00 55 1006.7
20260506093241 23 226 1.6 16.1 0.00 0.00 0.00 56 1006.6
20260506093226 23 142 1.6 16.1 0.00 0.00 0.00 56 1006.7
20260506093210 23 206 1.6 16.1 0.00 0.00 0.00 56 1006.6
20260506093202 23 175 0.0 16.1 0.00 0.00 0.00 55 1006.6
20260506092834 23 243 0.0 22.5 0.00 0.00 0.00 55 1006.3
20260506092734 23 183 0.0 22.5 0.00 0.00 0.00 55 1006.4
20260506092634 23 183 0.0 22.5 0.00 0.00 0.00 55 1006.3
20260506092554 23 74 0.0 22.5 0.00 0.00 0.00 56 1006.4
20260506092534 23 177 1.6 22.5 0.00 0.00 0.00 56 1006.4
20260506092434 23 179 0.0 22.5 0.00 0.00 0.00 56 1006.6
20260506092408 23 80 0.0 22.5 0.00 0.00 0.00 55 1006.0
20260506092353 23 260 3.2 22.5 0.00 0.00 0.00 56 1006.4
20260506092051 22 166 1.6 22.5 0.00 0.00 0.00 57 1006.4
20260506092030 22 237 6.4 22.5 0.00 0.00 0.00 57 1006.3
20260506091929 22 140 0.0 22.5 0.00 0.00 0.00 58 1006.5
20260506091830 22 191 11.3 22.5 0.00 0.00 0.00 58 1006.6
20260506091728 22 169 0.0 22.5 0.00 0.00 0.00 57 1006.5
20260506091628 22 220 3.2 22.5 0.00 0.00 0.00 57 1006.6
20260506091548 22 171 1.6 22.5 0.00 0.00 0.00 58 1006.6
20260506091529 22 243 9.7 22.5 0.00 0.00 0.00 58 1006.4
20260506091428 22 196 0.0 17.7 0.00 0.00 0.00 59 1006.2
20260506091329 23 203 8.0 17.7 0.00 0.00 0.00 57 1006.4
20260506091228 23 192 0.0 17.7 0.00 0.00 0.00 57 1006.7
20260506091207 23 230 1.6 14.5 0.00 0.00 0.00 57 1006.2
20260506091150 23 217 0.0 14.5 0.00 0.00 0.00 57 1006.2
20260506091143 23 200 0.0 17.7 0.00 0.00 0.00 57 1006.2
20260506090816 23 188 0.0 20.9 0.00 0.00 0.00 57 1006.3
20260506090712 23 214 9.7 20.9 0.00 0.00 0.00 57 1006.3
20260506090611 23 199 3.2 20.9 0.00 0.00 0.00 57 1006.4
20260506090547 23 276 0.0 20.9 0.00 0.00 0.00 58 1006.4
20260506090511 23 212 0.0 20.9 0.00 0.00 0.00 57 1006.4
20260506090410 22 119 0.0 20.9 0.00 0.00 0.00 58 1006.5
20260506090300 22 202 0.0 20.9 0.00 0.00 0.00 60 1006.3
20260506090213 22 199 0.0 20.9 0.00 0.00 0.00 60 1006.3
20260506090157 22 243 3.2 20.9 0.00 0.00 0.00 59 1006.5
20260506090144 22 163 9.7 20.9 0.00 0.00 0.00 59 1006.5
20260506090120 21 179 0.0 20.9 0.00 0.00 0.00 60 1006.5
20260506085759 21 235 3.2 20.9 0.00 0.00 0.00 61 1006.5
20260506085655 21 267 9.7 20.9 0.00 0.00 0.00 60 1006.3
20260506085554 22 244 11.3 20.9 0.00 0.00 0.00 60 1006.4
20260506085538 22 232 6.4 20.9 0.00 0.00 0.00 60 1006.4
20260506085452 22 86 1.6 20.9 0.00 0.00 0.00 60 1006.4
20260506085353 22 282 9.7 14.5 0.00 0.00 0.00 58 1006.6
20260506085253 21 188 3.2 11.3 0.00 0.00 0.00 61 1006.3
20260506085153 21 198 1.6 11.3 0.00 0.00 0.00 60 1006.4
20260506085041 22 271 6.4 11.3 0.00 0.00 0.00 60 1006.3
20260506084446 21 225 4.8 25.7 0.00 0.00 0.00 62 1006.3
20260506084346 21 184 4.8 25.7 0.00 0.00 0.00 62 1006.4
20260506084246 21 215 3.2 25.7 0.00 0.00 0.00 61 1006.0
20260506084144 21 232 8.0 30.6 0.00 0.00 0.00 61 1006.4
20260506084128 21 223 6.4 30.6 0.00 0.00 0.00 61 1006.4
20260506084044 21 227 11.3 30.6 0.00 0.00 0.00 61 1006.4
20260506083945 21 195 6.4 30.6 0.00 0.00 0.00 63 1006.3
20260506083840 21 211 9.7 30.6 0.00 0.00 0.00 62 1006.4
20260506083739 21 238 22.5 30.6 0.00 0.00 0.00 61 1005.9
20260506083641 21 241 8.0 30.6 0.00 0.00 0.00 60 1006.2
20260506083624 21 203 4.8 30.6 0.00 0.00 0.00 60 1006.2
20260506083540 21 199 0.0 30.6 0.00 0.00 0.00 60 1006.3
20260506083505 22 158 1.6 12.9 0.00 0.00 0.00 58 1005.9
20260506083456 21 198 1.6 30.6 0.00 0.00 0.00 60 1006.0
20260506083440 22 148 1.6 30.6 0.00 0.00 0.00 61 1005.9
20260506083425 22 229 12.9 30.6 0.00 0.00 0.00 59 1005.9
20260506083153 22 243 6.4 29.0 0.00 0.00 0.00 59 1005.9
20260506083142 23 191 4.8 29.0 0.00 0.00 0.00 58 1005.9
20260506083127 23 258 3.2 12.9 0.00 0.00 0.00 57 1005.9
20260506083110 23 203 0.0 12.9 0.00 0.00 0.00 57 1006.0
20260506082833 22 205 4.8 12.9 0.00 0.00 0.00 58 1005.9
20260506082534 22 190 3.2 12.9 0.00 0.00 0.00 59 1006.0
20260506082450 23 196 0.0 12.9 0.00 0.00 0.00 58 1006.0
20260506082441 22 234 6.4 12.9 0.00 0.00 0.00 58 1006.2
20260506082426 23 189 0.0 12.9 0.00 0.00 0.00 58 1006.0
20260506082410 23 199 3.2 12.9 0.00 0.00 0.00 58 1006.0
20260506082138 23 171 0.0 12.9 0.00 0.00 0.00 58 1006.2
20260506082128 23 188 0.0 12.9 0.00 0.00 0.00 58 1006.3
20260506082111 23 218 0.0 12.9 0.00 0.00 0.00 58 1006.4
20260506082056 23 132 0.0 12.9 0.00 0.00 0.00 58 1006.4
20260506081821 23 196 0.0 12.9 0.00 0.00 0.00 58 1006.0
20260506081515 22 183 0.0 12.9 0.00 0.00 0.00 59 1006.2
20260506081415 22 196 0.0 12.9 0.00 0.00 0.00 59 1006.3
20260506081310 22 234 0.0 14.5 0.00 0.00 0.00 60 1006.3
20260506081251 22 190 1.6 14.5 0.00 0.00 0.00 60 1006.3
20260506081229 22 216 3.2 14.5 0.00 0.00 0.00 60 1006.2
20260506080908 22 170 0.0 22.5 0.00 0.00 0.00 60 1006.2
20260506080857 21 184 0.0 22.5 0.00 0.00 0.00 62 1006.0
20260506080848 22 200 1.6 22.5 0.00 0.00 0.00 59 1006.2
20260506080832 21 180 0.0 22.5 0.00 0.00 0.00 61 1006.2
20260506080814 21 184 0.0 22.5 0.00 0.00 0.00 62 1006.0
20260506080504 21 210 6.4 22.5 0.00 0.00 0.00 63 1006.4
20260506080404 21 244 9.7 22.5 0.00 0.00 0.00 62 1006.0
20260506080346 21 198 1.6 22.5 0.00 0.00 0.00 60 1006.4
20260506080331 21 218 3.2 22.5 0.00 0.00 0.00 61 1006.4